Wetterdaten: Samstag, 22.05.2021
Datum Zeit Temp. Aussen Temp. o. S. Temp +5cm Feuchte Auss Luftdruck Regen Sonnenschein Regendauer Solar Windben Empfang
22.05.2021 00:00 10,4 C 9,4 C 7,8 C 85 % 1001,9 hPa 0,0 l/m 0 min 0 min 0 W/m 6,4 km/h (2 Bft) 95,74 %
22.05.2021 00:02 10,4 C 9,4 C 7,8 C 85 % 1001,9 hPa 0,0 l/m 0 min 0 min 0 W/m 9,7 km/h (2 Bft) 95,24 %
22.05.2021 00:04 10,4 C 9,4 C 7,8 C 85 % 1001,9 hPa 0,0 l/m 0 min 0 min 0 W/m 9,7 km/h (2 Bft) 97,87 %
22.05.2021 00:08 10,4 C 9,4 C 7,8 C 84 % 1001,9 hPa 0,0 l/m 0 min 0 min 0 W/m 9,7 km/h (2 Bft) 96,77 %
22.05.2021 00:10 10,4 C 9,4 C 7,8 C 84 % 1002,0 hPa 0,0 l/m 0 min 0 min 0 W/m 6,4 km/h (2 Bft) 95,74 %
22.05.2021 00:12 10,4 C 9,4 C 7,8 C 84 % 1002,0 hPa 0,0 l/m 0 min 0 min 0 W/m 9,7 km/h (2 Bft) 97,87 %
22.05.2021 00:14 10,4 C 10,0 C 7,8 C 84 % 1002,0 hPa 0,0 l/m 0 min 0 min 0 W/m 16,1 km/h (3 Bft) 95,74 %
22.05.2021 00:16 10,4 C 10,0 C 7,8 C 84 % 1002,1 hPa 0,0 l/m 0 min 0 min 0 W/m 16,1 km/h (3 Bft) 97,87 %
22.05.2021 00:18 10,4 C 10,0 C 7,8 C 84 % 1002,0 hPa 0,0 l/m 0 min 0 min 0 W/m 16,1 km/h (3 Bft) 97,83 %
22.05.2021 00:20 10,4 C 10,0 C 7,8 C 84 % 1002,0 hPa 0,0 l/m 0 min 0 min 0 W/m 9,7 km/h (2 Bft) 97,87 %
22.05.2021 00:22 10,4 C 10,0 C 7,8 C 84 % 1002,1 hPa 0,0 l/m 0 min 0 min 0 W/m 9,7 km/h (2 Bft) 97,87 %
22.05.2021 00:24 10,4 C 10,0 C 7,8 C 84 % 1002,0 hPa 0,0 l/m 0 min 0 min 0 W/m 9,7 km/h (2 Bft) 95,74 %
22.05.2021 00:26 10,4 C 10,0 C 7,8 C 84 % 1002,1 hPa 0,0 l/m 0 min 0 min 0 W/m 9,7 km/h (2 Bft) 97,87 %
22.05.2021 00:28 10,4 C 10,0 C 7,8 C 84 % 1002,0 hPa 0,0 l/m 0 min 0 min 0 W/m 6,4 km/h (2 Bft) 97,87 %
22.05.2021 00:30 10,4 C 9,4 C 7,8 C 84 % 1002,1 hPa 0,0 l/m 0 min 0 min 0 W/m 12,9 km/h (3 Bft) 97,83 %
22.05.2021 00:32 10,4 C 9,4 C 7,8 C 83 % 1002,1 hPa 0,0 l/m 0 min 0 min 0 W/m 12,9 km/h (3 Bft) 97,87 %
22.05.2021 00:34 10,4 C 9,4 C 7,8 C 84 % 1002,1 hPa 0,0 l/m 0 min 0 min 0 W/m 12,9 km/h (3 Bft) 97,87 %
22.05.2021 00:36 10,3 C 9,4 C 7,8 C 83 % 1002,1 hPa 0,0 l/m 0 min 0 min 0 W/m 6,4 km/h (2 Bft) 95,74 %
22.05.2021 00:38 10,4 C 9,4 C 7,8 C 83 % 1002,1 hPa 0,0 l/m 0 min 0 min 0 W/m 6,4 km/h (2 Bft) 97,87 %
22.05.2021 00:40 10,3 C 9,4 C 7,8 C 83 % 1002,1 hPa 0,0 l/m 0 min 0 min 0 W/m 9,7 km/h (2 Bft) 100,00 %
22.05.2021 00:42 10,3 C 9,4 C 7,8 C 83 % 1002,1 hPa 0,0 l/m 0 min 0 min 0 W/m 9,7 km/h (2 Bft) 97,83 %
22.05.2021 00:44 10,3 C 9,4 C 7,8 C 83 % 1002,2 hPa 0,0 l/m 0 min 0 min 0 W/m 12,9 km/h (3 Bft) 97,87 %
22.05.2021 00:46 10,3 C 9,4 C 7,8 C 83 % 1002,1 hPa 0,0 l/m 0 min 0 min 0 W/m 16,1 km/h (3 Bft) 100,00 %
22.05.2021 00:48 10,3 C 9,4 C 7,8 C 83 % 1002,1 hPa 0,0 l/m 0 min 0 min 0 W/m 9,7 km/h (2 Bft) 50,00 %
22.05.2021 00:50 10,3 C 9,4 C 7,8 C 83 % 1002,0 hPa 0,0 l/m 0 min 0 min 0 W/m 19,3 km/h (3 Bft) 100,00 %
22.05.2021 00:52 10,3 C 9,4 C 7,8 C 83 % 1002,1 hPa 0,0 l/m 0 min 0 min 0 W/m 9,7 km/h (2 Bft) 93,62 %
22.05.2021 00:54 10,3 C 9,4 C 7,8 C 83 % 1002,1 hPa 0,0 l/m 0 min 0 min 0 W/m 12,9 km/h (3 Bft) 95,65 %
22.05.2021 00:56 10,3 C 9,4 C 7,8 C 83 % 1002,1 hPa 0,0 l/m 0 min 0 min 0 W/m 16,1 km/h (3 Bft) 97,87 %
22.05.2021 00:58 10,3 C 9,4 C 7,8 C 83 % 1002,1 hPa 0,0 l/m 0 min 0 min 0 W/m 29,0 km/h (5 Bft) 97,87 %
22.05.2021 01:00 10,3 C 9,4 C 7,8 C 83 % 1002,2 hPa 0,0 l/m 0 min 0 min 0 W/m 16,1 km/h (3 Bft) 97,87 %
22.05.2021 01:02 10,3 C 9,4 C 7,8 C 83 % 1002,3 hPa 0,0 l/m 0 min 0 min 0 W/m 16,1 km/h (3 Bft) 100,00 %
22.05.2021 01:04 10,3 C 9,4 C 7,8 C 83 % 1002,3 hPa 0,0 l/m 0 min 0 min 0 W/m 19,3 km/h (3 Bft) 100,00 %
22.05.2021 01:06 10,3 C 9,4 C 7,8 C 83 % 1002,3 hPa 0,0 l/m 0 min 0 min 0 W/m 16,1 km/h (3 Bft) 100,00 %
22.05.2021 01:08 10,3 C 9,4 C 7,8 C 83 % 1002,2 hPa 0,0 l/m 0 min 0 min 0 W/m 16,1 km/h (3 Bft) 100,00 %
22.05.2021 01:10 10,2 C 9,4 C 7,8 C 83 % 1002,2 hPa 0,0 l/m 0 min 0 min 0 W/m 12,9 km/h (3 Bft) 100,00 %
22.05.2021 01:12 10,2 C 9,4 C 7,8 C 83 % 1002,1 hPa 0,0 l/m 0 min 0 min 0 W/m 19,3 km/h (3 Bft) 100,00 %
22.05.2021 01:14 10,2 C 9,4 C 7,8 C 83 % 1002,3 hPa 0,0 l/m 0 min 0 min 0 W/m 16,1 km/h (3 Bft) 100,00 %
22.05.2021 01:16 10,2 C 9,4 C 7,8 C 83 % 1002,2 hPa 0,0 l/m 0 min 0 min 0 W/m 12,9 km/h (3 Bft) 100,00 %
22.05.2021 01:18 10,2 C 9,4 C 7,8 C 83 % 1002,1 hPa 0,0 l/m 0 min 0 min 0 W/m 16,1 km/h (3 Bft) 100,00 %
22.05.2021 01:20 10,2 C 9,4 C 7,8 C 83 % 1002,1 hPa 0,0 l/m 0 min 0 min 0 W/m 12,9 km/h (3 Bft) 97,87 %
22.05.2021 01:22 10,2 C 9,4 C 7,8 C 83 % 1002,2 hPa 0,0 l/m 0 min 0 min 0 W/m 19,3 km/h (3 Bft) 100,00 %
22.05.2021 01:24 10,2 C 9,4 C 7,8 C 83 % 1002,2 hPa 0,0 l/m 0 min 0 min 0 W/m 32,2 km/h (5 Bft) 100,00 %
22.05.2021 01:26 10,2 C 9,4 C 7,8 C 83 % 1002,2 hPa 0,0 l/m 0 min 0 min 0 W/m 22,5 km/h (4 Bft) 100,00 %
22.05.2021 01:28 10,3 C 9,4 C 7,8 C 83 % 1002,3 hPa 0,0 l/m 0 min 0 min 0 W/m 22,5 km/h (4 Bft) 97,87 %
22.05.2021 01:30 10,3 C 9,4 C 7,8 C 83 % 1002,3 hPa 0,0 l/m 0 min 0 min 0 W/m 19,3 km/h (3 Bft) 95,65 %
22.05.2021 01:32 10,3 C 9,4 C 7,8 C 83 % 1002,3 hPa 0,0 l/m 0 min 0 min 0 W/m 22,5 km/h (4 Bft) 97,87 %
22.05.2021 01:34 10,2 C 9,4 C 7,8 C 83 % 1002,2 hPa 0,0 l/m 0 min 0 min 0 W/m 22,5 km/h (4 Bft) 97,87 %
22.05.2021 01:36 10,2 C 9,4 C 7,8 C 83 % 1002,2 hPa 0,0 l/m 0 min 0 min 0 W/m 19,3 km/h (3 Bft) 97,87 %
22.05.2021 01:38 10,2 C 9,4 C 7,8 C 83 % 1002,3 hPa 0,0 l/m 0 min 0 min 0 W/m 16,1 km/h (3 Bft) 95,74 %
22.05.2021 01:40 10,2 C 9,4 C 7,8 C 83 % 1002,3 hPa 0,0 l/m 0 min 0 min 0 W/m 16,1 km/h (3 Bft) 97,87 %
22.05.2021 01:42 10,2 C 9,4 C 7,8 C 83 % 1002,3 hPa 0,0 l/m 0 min 0 min 0 W/m 29,0 km/h (5 Bft) 97,83 %
22.05.2021 01:44 10,2 C 9,4 C 7,8 C 83 % 1002,3 hPa 0,0 l/m 0 min 0 min 0 W/m 19,3 km/h (3 Bft) 97,87 %
22.05.2021 01:46 10,2 C 9,4 C 7,8 C 83 % 1002,3 hPa 0,0 l/m 0 min 0 min 0 W/m 22,5 km/h (4 Bft) 95,74 %
22.05.2021 01:48 10,2 C 9,4 C 7,8 C 83 % 1002,4 hPa 0,0 l/m 0 min 0 min 0 W/m 16,1 km/h (3 Bft) 97,87 %
22.05.2021 01:50 10,2 C 9,4 C 7,8 C 83 % 1002,3 hPa 0,0 l/m 0 min 0 min 0 W/m 16,1 km/h (3 Bft) 97,87 %
22.05.2021 01:52 10,1 C 9,4 C 7,8 C 83 % 1002,2 hPa 0,0 l/m 0 min 0 min 0 W/m 16,1 km/h (3 Bft) 95,74 %
22.05.2021 01:54 10,1 C 9,4 C 7,8 C 83 % 1002,2 hPa 0,0 l/m 0 min 0 min 0 W/m 19,3 km/h (3 Bft) 97,83 %
22.05.2021 01:56 10,1 C 9,4 C 7,8 C 83 % 1002,2 hPa 0,0 l/m 0 min 0 min 0 W/m 22,5 km/h (4 Bft) 97,87 %
22.05.2021 01:58 10,1 C 9,4 C 7,8 C 83 % 1002,1 hPa 0,0 l/m 0 min 0 min 0 W/m 19,3 km/h (3 Bft) 97,87 %
22.05.2021 02:00 10,1 C 9,4 C 7,8 C 83 % 1002,1 hPa 0,0 l/m 0 min 0 min 0 W/m 25,7 km/h (4 Bft) 95,74 %
22.05.2021 02:02 10,1 C 9,4 C 7,8 C 83 % 1002,0 hPa 0,0 l/m 0 min 0 min 0 W/m 16,1 km/h (3 Bft) 95,74 %
22.05.2021 02:04 10,2 C 9,4 C 7,8 C 82 % 1002,1 hPa 0,0 l/m 0 min 0 min 0 W/m 19,3 km/h (3 Bft) 97,87 %
22.05.2021 02:06 10,3 C 9,4 C 7,8 C 82 % 1002,0 hPa 0,0 l/m 0 min 0 min 0 W/m 29,0 km/h (5 Bft) 97,83 %
22.05.2021 02:08 10,3 C 10,0 C 7,8 C 82 % 1002,1 hPa 0,0 l/m 0 min 0 min 0 W/m 22,5 km/h (4 Bft) 97,87 %
22.05.2021 02:10 10,3 C 10,0 C 7,8 C 81 % 1002,0 hPa 0,0 l/m 0 min 0 min 0 W/m 16,1 km/h (3 Bft) 100,00 %
22.05.2021 02:12 10,4 C 10,0 C 7,8 C 81 % 1002,0 hPa 0,0 l/m 0 min 0 min 0 W/m 25,7 km/h (4 Bft) 100,00 %
22.05.2021 02:14 10,4 C 10,0 C 7,8 C 81 % 1001,9 hPa 0,0 l/m 0 min 0 min 0 W/m 29,0 km/h (5 Bft) 100,00 %
22.05.2021 02:16 10,4 C 10,0 C 7,8 C 81 % 1001,9 hPa 0,0 l/m 0 min 0 min 0 W/m 16,1 km/h (3 Bft) 100,00 %
22.05.2021 02:18 10,5 C 10,0 C 7,8 C 81 % 1001,9 hPa 0,0 l/m 0 min 0 min 0 W/m 25,7 km/h (4 Bft) 97,83 %
22.05.2021 02:20 10,5 C 10,0 C 7,8 C 80 % 1001,9 hPa 0,0 l/m 0 min 0 min 0 W/m 25,7 km/h (4 Bft) 100,00 %
22.05.2021 02:22 10,5 C 10,0 C 7,8 C 79 % 1001,9 hPa 0,0 l/m 0 min 0 min 0 W/m 25,7 km/h (4 Bft) 100,00 %
22.05.2021 02:24 10,5 C 10,0 C 7,8 C 79 % 1001,8 hPa 0,0 l/m 0 min 0 min 0 W/m 25,7 km/h (4 Bft) 100,00 %
22.05.2021 02:26 10,5 C 10,0 C 7,8 C 79 % 1001,8 hPa 0,0 l/m 0 min 0 min 0 W/m 22,5 km/h (4 Bft) 100,00 %
22.05.2021 02:28 10,5 C 10,0 C 7,8 C 79 % 1001,7 hPa 0,0 l/m 0 min 0 min 0 W/m 19,3 km/h (3 Bft) 100,00 %
22.05.2021 02:30 10,5 C 10,0 C 7,8 C 79 % 1001,7 hPa 0,0 l/m 0 min 0 min 0 W/m 19,3 km/h (3 Bft) 100,00 %
22.05.2021 02:32 10,5 C 10,0 C 7,8 C 79 % 1001,7 hPa 0,0 l/m 0 min 0 min 0 W/m 16,1 km/h (3 Bft) 100,00 %
22.05.2021 02:34 10,5 C 10,0 C 7,8 C 78 % 1001,8 hPa 0,0 l/m 0 min 0 min 0 W/m 22,5 km/h (4 Bft) 100,00 %
22.05.2021 02:36 10,5 C 10,0 C 7,8 C 78 % 1001,8 hPa 0,0 l/m 0 min 0 min 0 W/m 41,8 km/h (6 Bft) 100,00 %
22.05.2021 02:38 10,5 C 10,0 C 7,8 C 77 % 1001,7 hPa 0,0 l/m 0 min 0 min 0 W/m 25,7 km/h (4 Bft) 97,87 %
22.05.2021 02:40 10,5 C 10,0 C 7,8 C 77 % 1001,9 hPa 0,0 l/m 0 min 0 min 0 W/m 25,7 km/h (4 Bft) 100,00 %
22.05.2021 02:42 10,5 C 10,0 C 7,8 C 77 % 1001,7 hPa 0,0 l/m 0 min 0 min 0 W/m 29,0 km/h (5 Bft) 100,00 %
22.05.2021 02:44 10,5 C 10,0 C 7,8 C 76 % 1001,7 hPa 0,0 l/m 0 min 0 min 0 W/m 25,7 km/h (4 Bft) 100,00 %
22.05.2021 02:46 10,5 C 10,0 C 7,8 C 76 % 1001,7 hPa 0,0 l/m 0 min 0 min 0 W/m 22,5 km/h (4 Bft) 100,00 %
22.05.2021 02:48 10,6 C 10,0 C 7,8 C 76 % 1001,7 hPa 0,0 l/m 0 min 0 min 0 W/m 32,2 km/h (5 Bft) 100,00 %
22.05.2021 02:50 10,6 C 10,0 C 7,8 C 76 % 1001,6 hPa 0,0 l/m 0 min 0 min 0 W/m 29,0 km/h (5 Bft) 100,00 %
22.05.2021 02:52 10,6 C 10,0 C 7,8 C 75 % 1001,7 hPa 0,0 l/m 0 min 0 min 0 W/m 45,1 km/h (6 Bft) 97,87 %
22.05.2021 02:54 10,6 C 10,0 C 7,8 C 75 % 1001,6 hPa 0,0 l/m 0 min 0 min 0 W/m 25,7 km/h (4 Bft) 97,87 %
22.05.2021 02:56 10,6 C 10,0 C 7,8 C 76 % 1001,7 hPa 0,0 l/m 0 min 0 min 0 W/m 19,3 km/h (3 Bft) 97,83 %
22.05.2021 02:58 10,6 C 10,0 C 7,8 C 76 % 1001,7 hPa 0,0 l/m 0 min 0 min 0 W/m 19,3 km/h (3 Bft) 97,87 %
22.05.2021 03:00 10,6 C 10,0 C 7,8 C 76 % 1001,6 hPa 0,0 l/m 0 min 0 min 0 W/m 22,5 km/h (4 Bft) 93,62 %
22.05.2021 03:02 10,5 C 10,0 C 7,8 C 76 % 1001,6 hPa 0,0 l/m 0 min 0 min 0 W/m 22,5 km/h (4 Bft) 97,87 %
22.05.2021 03:04 10,5 C 9,4 C 7,8 C 76 % 1001,6 hPa 0,0 l/m 0 min 0 min 0 W/m 12,9 km/h (3 Bft) 95,74 %
22.05.2021 03:06 10,5 C 9,4 C 7,8 C 76 % 1001,6 hPa 0,0 l/m 0 min 0 min 0 W/m 25,7 km/h (4 Bft) 97,87 %
22.05.2021 03:08 10,5 C 9,4 C 7,8 C 77 % 1001,5 hPa 0,0 l/m 0 min 0 min 0 W/m 16,1 km/h (3 Bft) 97,83 %
22.05.2021 03:10 10,4 C 9,4 C 7,8 C 77 % 1001,5 hPa 0,0 l/m 0 min 0 min 0 W/m 22,5 km/h (4 Bft) 97,87 %
22.05.2021 03:12 10,4 C 9,4 C 7,8 C 77 % 1001,5 hPa 0,0 l/m 0 min 0 min 0 W/m 16,1 km/h (3 Bft) 95,83 %
22.05.2021 03:14 10,4 C 9,4 C 7,3 C 77 % 1001,4 hPa 0,0 l/m 0 min 0 min 0 W/m 16,1 km/h (3 Bft) 95,74 %
22.05.2021 03:16 10,3 C 9,4 C 7,3 C 77 % 1001,5 hPa 0,0 l/m 0 min 0 min 0 W/m 22,5 km/h (4 Bft) 95,65 %
22.05.2021 03:18 10,3 C 9,4 C 7,3 C 77 % 1001,5 hPa 0,0 l/m 0 min 0 min 0 W/m 16,1 km/h (3 Bft) 91,49 %
22.05.2021 03:20 10,3 C 9,4 C 7,3 C 78 % 1001,4 hPa 0,0 l/m 0 min 0 min 0 W/m 22,5 km/h (4 Bft) 95,74 %
22.05.2021 03:22 10,2 C 9,4 C 7,3 C 78 % 1001,5 hPa 0,0 l/m 0 min 0 min 0 W/m 29,0 km/h (5 Bft) 95,74 %
22.05.2021 03:24 10,2 C 9,4 C 7,3 C 78 % 1001,5 hPa 0,0 l/m 0 min 0 min 0 W/m 25,7 km/h (4 Bft) 95,74 %
22.05.2021 03:26 10,1 C 9,4 C 7,3 C 78 % 1001,5 hPa 0,0 l/m 0 min 0 min 0 W/m 19,3 km/h (3 Bft) 95,35 %
22.05.2021 03:28 10,1 C 9,4 C 7,3 C 78 % 1001,5 hPa 0,0 l/m 0 min 0 min 0 W/m 12,9 km/h (3 Bft) 95,74 %
22.05.2021 03:30 10,0 C 8,9 C 7,3 C 79 % 1001,5 hPa 0,0 l/m 0 min 0 min 0 W/m 6,4 km/h (2 Bft) 93,62 %
22.05.2021 03:32 10,0 C 8,9 C 7,3 C 79 % 1001,5 hPa 0,0 l/m 0 min 0 min 0 W/m 12,9 km/h (3 Bft) 95,74 %
22.05.2021 03:34 10,0 C 8,9 C 7,3 C 79 % 1001,6 hPa 0,0 l/m 0 min 0 min 0 W/m 19,3 km/h (3 Bft) 95,74 %
22.05.2021 03:36 9,9 C 8,9 C 7,3 C 79 % 1001,5 hPa 0,0 l/m 0 min 0 min 0 W/m 12,9 km/h (3 Bft) 93,62 %
22.05.2021 03:38 9,9 C 8,9 C 7,3 C 80 % 1001,4 hPa 0,0 l/m 0 min 0 min 0 W/m 16,1 km/h (3 Bft) 95,74 %
22.05.2021 03:40 9,9 C 8,9 C 7,3 C 80 % 1001,5 hPa 0,0 l/m 0 min 0 min 0 W/m 25,7 km/h (4 Bft) 95,92 %
22.05.2021 03:42 9,9 C 8,9 C 7,3 C 80 % 1001,5 hPa 0,0 l/m 0 min 0 min 0 W/m 25,7 km/h (4 Bft) 95,74 %
22.05.2021 03:44 9,8 C 8,9 C 7,3 C 80 % 1001,5 hPa 0,0 l/m 0 min 0 min 0 W/m 22,5 km/h (4 Bft) 95,74 %
22.05.2021 03:46 9,8 C 8,9 C 7,3 C 80 % 1001,5 hPa 0,0 l/m 0 min 0 min 0 W/m 22,5 km/h (4 Bft) 95,74 %
22.05.2021 03:48 9,8 C 8,9 C 7,3 C 80 % 1001,5 hPa 0,0 l/m 0 min 0 min 0 W/m 22,5 km/h (4 Bft) 97,87 %
22.05.2021 03:50 9,8 C 8,9 C 7,3 C 81 % 1001,6 hPa 0,0 l/m 0 min 0 min 0 W/m 22,5 km/h (4 Bft) 97,87 %
22.05.2021 03:52 9,8 C 8,9 C 7,3 C 81 % 1001,5 hPa 0,0 l/m 0 min 0 min 0 W/m 29,0 km/h (5 Bft) 95,65 %
22.05.2021 03:54 9,8 C 8,9 C 7,3 C 81 % 1001,6 hPa 0,0 l/m 0 min 0 min 0 W/m 22,5 km/h (4 Bft) 97,87 %
22.05.2021 03:56 9,8 C 8,9 C 7,3 C 81 % 1001,5 hPa 0,0 l/m 0 min 0 min 0 W/m 25,7 km/h (4 Bft) 95,74 %
22.05.2021 03:58 9,8 C 8,9 C 7,3 C 81 % 1001,5 hPa 0,0 l/m 0 min 0 min 0 W/m 19,3 km/h (3 Bft) 97,87 %
22.05.2021 04:00 9,8 C 8,9 C 7,3 C 81 % 1001,5 hPa 0,0 l/m 0 min 0 min 0 W/m 25,7 km/h (4 Bft) 95,74 %
22.05.2021 04:02 9,8 C 8,9 C 7,3 C 81 % 1001,4 hPa 0,0 l/m 0 min 0 min 0 W/m 19,3 km/h (3 Bft) 100,00 %
22.05.2021 04:04 9,7 C 8,9 C 7,3 C 81 % 1001,5 hPa 0,0 l/m 0 min 0 min 0 W/m 22,5 km/h (4 Bft) 95,65 %
22.05.2021 04:09 9,8 C 8,9 C 7,3 C 81 % 1001,4 hPa 0,0 l/m 0 min 0 min 0 W/m 29,0 km/h (5 Bft) 100,00 %
22.05.2021 04:10 9,8 C 8,9 C 7,3 C 81 % 1001,4 hPa 0,0 l/m 0 min 0 min 0 W/m 25,7 km/h (4 Bft) 100,00 %
22.05.2021 04:12 9,8 C 8,9 C 7,3 C 81 % 1001,4 hPa 0,0 l/m 0 min 0 min 0 W/m 22,5 km/h (4 Bft) 100,00 %
22.05.2021 04:14 9,8 C 9,4 C 7,3 C 81 % 1001,4 hPa 0,0 l/m 0 min 0 min 0 W/m 25,7 km/h (4 Bft) 97,62 %
22.05.2021 04:16 9,8 C 9,4 C 7,3 C 80 % 1001,4 hPa 0,0 l/m 0 min 0 min 0 W/m 16,1 km/h (3 Bft) 97,87 %
22.05.2021 04:18 9,8 C 9,4 C 7,3 C 80 % 1001,5 hPa 0,0 l/m 0 min 0 min 0 W/m 19,3 km/h (3 Bft) 93,75 %
22.05.2021 04:20 9,8 C 9,4 C 7,3 C 80 % 1001,5 hPa 0,0 l/m 0 min 0 min 0 W/m 19,3 km/h (3 Bft) 93,62 %
22.05.2021 04:22 9,8 C 9,4 C 7,3 C 80 % 1001,5 hPa 0,0 l/m 0 min 0 min 0 W/m 25,7 km/h (4 Bft) 93,62 %
22.05.2021 04:24 9,9 C 9,4 C 7,3 C 80 % 1001,5 hPa 0,0 l/m 0 min 0 min 0 W/m 25,7 km/h (4 Bft) 95,74 %
22.05.2021 04:26 9,9 C 9,4 C 7,3 C 80 % 1001,5 hPa 0,0 l/m 0 min 0 min 0 W/m 19,3 km/h (3 Bft) 95,74 %
22.05.2021 04:28 9,8 C 8,9 C 7,3 C 80 % 1001,4 hPa 0,0 l/m 0 min 0 min 0 W/m 12,9 km/h (3 Bft) 95,74 %
22.05.2021 04:30 9,8 C 8,9 C 7,3 C 80 % 1001,4 hPa 0,0 l/m 0 min 0 min 0 W/m 19,3 km/h (3 Bft) 93,62 %
22.05.2021 04:32 9,9 C 9,4 C 7,3 C 80 % 1001,4 hPa 0,0 l/m 0 min 0 min 0 W/m 16,1 km/h (3 Bft) 95,74 %
22.05.2021 04:34 9,8 C 9,4 C 7,3 C 80 % 1001,4 hPa 0,0 l/m 0 min 0 min 0 W/m 12,9 km/h (3 Bft) 97,87 %
22.05.2021 04:36 9,9 C 9,4 C 7,3 C 80 % 1001,4 hPa 0,0 l/m 0 min 0 min 0 W/m 19,3 km/h (3 Bft) 97,87 %
22.05.2021 04:38 9,9 C 9,4 C 7,3 C 80 % 1001,3 hPa 0,0 l/m 0 min 0 min 0 W/m 19,3 km/h (3 Bft) 97,87 %
22.05.2021 04:40 9,9 C 9,4 C 7,3 C 80 % 1001,4 hPa 0,0 l/m 0 min 0 min 0 W/m 16,1 km/h (3 Bft) 97,87 %
22.05.2021 04:42 9,9 C 9,4 C 7,3 C 80 % 1001,3 hPa 0,0 l/m 0 min 0 min 0 W/m 19,3 km/h (3 Bft) 97,83 %
22.05.2021 04:44 9,9 C 9,4 C 7,3 C 80 % 1001,3 hPa 0,0 l/m 0 min 0 min 0 W/m 16,1 km/h (3 Bft) 100,00 %
22.05.2021 04:46 9,9 C 9,4 C 7,3 C 80 % 1001,4 hPa 0,0 l/m 0 min 0 min 0 W/m 19,3 km/h (3 Bft) 97,96 %
22.05.2021 04:48 9,9 C 9,4 C 7,3 C 80 % 1001,3 hPa 0,0 l/m 0 min 0 min 0 W/m 32,2 km/h (5 Bft) 100,00 %
22.05.2021 04:50 10,0 C 9,4 C 7,3 C 80 % 1001,3 hPa 0,0 l/m 0 min 0 min 0 W/m 25,7 km/h (4 Bft) 100,00 %
22.05.2021 04:52 10,0 C 9,4 C 7,3 C 80 % 1001,3 hPa 0,0 l/m 0 min 0 min 0 W/m 22,5 km/h (4 Bft) 97,83 %
22.05.2021 04:54 10,0 C 9,4 C 7,3 C 80 % 1001,3 hPa 0,0 l/m 0 min 0 min 0 W/m 29,0 km/h (5 Bft) 100,00 %
22.05.2021 04:56 10,0 C 9,4 C 7,3 C 79 % 1001,3 hPa 0,0 l/m 0 min 0 min 0 W/m 25,7 km/h (4 Bft) 100,00 %
22.05.2021 04:58 10,0 C 9,4 C 7,3 C 79 % 1001,2 hPa 0,0 l/m 0 min 0 min 0 W/m 29,0 km/h (5 Bft) 100,00 %
22.05.2021 05:00 10,0 C 9,4 C 7,3 C 79 % 1001,2 hPa 0,0 l/m 0 min 0 min 0 W/m 45,1 km/h (6 Bft) 100,00 %
22.05.2021 05:02 10,1 C 9,4 C 7,3 C 79 % 1001,1 hPa 0,0 l/m 0 min 0 min 0 W/m 16,1 km/h (3 Bft) 97,87 %
22.05.2021 05:04 10,1 C 9,4 C 7,3 C 79 % 1001,1 hPa 0,0 l/m 0 min 0 min 0 W/m 19,3 km/h (3 Bft) 100,00 %
22.05.2021 05:06 10,1 C 9,4 C 7,3 C 79 % 1001,2 hPa 0,0 l/m 0 min 0 min 0 W/m 22,5 km/h (4 Bft) 100,00 %
22.05.2021 05:08 10,1 C 9,4 C 7,3 C 79 % 1001,1 hPa 0,0 l/m 0 min 0 min 0 W/m 32,2 km/h (5 Bft) 95,65 %
22.05.2021 05:10 10,1 C 9,4 C 7,3 C 79 % 1001,2 hPa 0,0 l/m 0 min 0 min 0 W/m 25,7 km/h (4 Bft) 100,00 %
22.05.2021 05:12 10,1 C 9,4 C 7,3 C 79 % 1001,2 hPa 0,0 l/m 0 min 0 min 0 W/m 32,2 km/h (5 Bft) 97,87 %
22.05.2021 05:14 10,1 C 9,4 C 7,3 C 79 % 1001,2 hPa 0,0 l/m 0 min 0 min 0 W/m 16,1 km/h (3 Bft) 100,00 %
22.05.2021 05:16 10,1 C 9,4 C 7,3 C 79 % 1001,2 hPa 0,0 l/m 0 min 0 min 0 W/m 29,0 km/h (5 Bft) 100,00 %
22.05.2021 05:18 10,1 C 9,4 C 7,3 C 79 % 1001,2 hPa 0,0 l/m 0 min 0 min 0 W/m 22,5 km/h (4 Bft) 100,00 %
22.05.2021 05:20 10,0 C 9,4 C 7,3 C 79 % 1001,2 hPa 0,0 l/m 0 min 0 min 0 W/m 35,4 km/h (5 Bft) 100,00 %
22.05.2021 05:22 10,0 C 9,4 C 7,3 C 79 % 1001,2 hPa 0,0 l/m 0 min 0 min 0 W/m 29,0 km/h (5 Bft) 100,00 %
22.05.2021 05:24 10,0 C 9,4 C 7,3 C 79 % 1001,2 hPa 0,0 l/m 0 min 0 min 0 W/m 35,4 km/h (5 Bft) 97,87 %
22.05.2021 05:26 10,0 C 9,4 C 7,3 C 79 % 1001,2 hPa 0,0 l/m 0 min 0 min 0 W/m 25,7 km/h (4 Bft) 100,00 %
22.05.2021 05:28 10,0 C 9,4 C 7,3 C 79 % 1001,3 hPa 0,0 l/m 0 min 0 min 0 W/m 32,2 km/h (5 Bft) 100,00 %
22.05.2021 05:30 10,0 C 9,4 C 7,3 C 79 % 1001,2 hPa 0,0 l/m 0 min 0 min 0 W/m 29,0 km/h (5 Bft) 97,92 %
22.05.2021 05:32 10,0 C 9,4 C 7,3 C 79 % 1001,2 hPa 0,0 l/m 0 min 0 min 0 W/m 25,7 km/h (4 Bft) 100,00 %
22.05.2021 05:34 10,0 C 9,4 C 7,3 C 79 % 1001,2 hPa 0,0 l/m 0 min 0 min 4 W/m 22,5 km/h (4 Bft) 100,00 %
22.05.2021 05:36 10,0 C 9,4 C 7,3 C 79 % 1001,2 hPa 0,0 l/m 0 min 0 min 5 W/m 32,2 km/h (5 Bft) 97,87 %
22.05.2021 05:38 10,0 C 9,4 C 7,3 C 79 % 1001,1 hPa 0,0 l/m 0 min 0 min 5 W/m 19,3 km/h (3 Bft) 100,00 %
22.05.2021 05:40 10,0 C 9,4 C 7,3 C 80 % 1001,2 hPa 0,0 l/m 0 min 0 min 5 W/m 32,2 km/h (5 Bft) 100,00 %
22.05.2021 05:42 10,0 C 9,4 C 7,3 C 80 % 1001,1 hPa 0,0 l/m 0 min 0 min 5 W/m 54,7 km/h (7 Bft) 100,00 %
22.05.2021 05:44 10,1 C 9,4 C 7,3 C 80 % 1001,3 hPa 0,0 l/m 0 min 0 min 6 W/m 25,7 km/h (4 Bft) 100,00 %
22.05.2021 05:46 10,1 C 9,4 C 7,3 C 80 % 1001,2 hPa 0,0 l/m 0 min 0 min 9 W/m 48,3 km/h (6 Bft) 100,00 %
22.05.2021 05:48 10,1 C 9,4 C 7,3 C 80 % 1001,2 hPa 0,0 l/m 0 min 0 min 9 W/m 29,0 km/h (5 Bft) 100,00 %
22.05.2021 05:50 10,2 C 9,4 C 7,3 C 80 % 1001,1 hPa 0,0 l/m 0 min 0 min 10 W/m 35,4 km/h (5 Bft) 100,00 %
22.05.2021 05:52 10,2 C 9,4 C 7,3 C 80 % 1001,2 hPa 0,0 l/m 0 min 0 min 7 W/m 38,6 km/h (5 Bft) 97,87 %
22.05.2021 05:54 10,3 C 9,4 C 7,8 C 80 % 1001,1 hPa 0,0 l/m 0 min 0 min 7 W/m 29,0 km/h (5 Bft) 95,74 %
22.05.2021 05:56 10,3 C 10,0 C 7,8 C 80 % 1001,1 hPa 0,0 l/m 0 min 0 min 7 W/m 38,6 km/h (5 Bft) 97,87 %
22.05.2021 05:58 10,3 C 10,0 C 7,8 C 79 % 1001,2 hPa 0,0 l/m 0 min 0 min 9 W/m 32,2 km/h (5 Bft) 97,87 %
22.05.2021 06:00 10,4 C 10,0 C 7,8 C 79 % 1001,1 hPa 0,0 l/m 0 min 0 min 13 W/m 25,7 km/h (4 Bft) 97,87 %
22.05.2021 06:02 10,4 C 10,0 C 7,8 C 79 % 1001,3 hPa 0,0 l/m 0 min 0 min 19 W/m 35,4 km/h (5 Bft) 97,83 %
22.05.2021 06:04 10,4 C 10,0 C 7,8 C 79 % 1001,2 hPa 0,0 l/m 0 min 0 min 23 W/m 57,9 km/h (7 Bft) 97,87 %
22.05.2021 06:08 10,5 C 10,0 C 7,8 C 79 % 1001,2 hPa 0,0 l/m 0 min 0 min 27 W/m 45,1 km/h (6 Bft) 97,87 %
22.05.2021 06:10 10,5 C 10,0 C 7,8 C 79 % 1001,2 hPa 0,0 l/m 2 min 0 min 36 W/m 35,4 km/h (5 Bft) 93,62 %
22.05.2021 06:12 10,5 C 10,0 C 7,8 C 79 % 1001,2 hPa 0,0 l/m 2 min 0 min 44 W/m 29,0 km/h (5 Bft) 97,83 %
22.05.2021 06:14 10,5 C 10,0 C 7,8 C 79 % 1001,2 hPa 0,0 l/m 2 min 0 min 51 W/m 38,6 km/h (5 Bft) 97,87 %
22.05.2021 06:16 10,5 C 10,0 C 7,8 C 79 % 1001,3 hPa 0,0 l/m 2 min 0 min 58 W/m 25,7 km/h (4 Bft) 97,87 %
22.05.2021 06:18 10,5 C 10,0 C 7,8 C 79 % 1001,3 hPa 0,0 l/m 2 min 0 min 56 W/m 22,5 km/h (4 Bft) 97,87 %
22.05.2021 06:20 10,5 C 10,0 C 7,8 C 79 % 1001,2 hPa 0,0 l/m 2 min 0 min 49 W/m 38,6 km/h (5 Bft) 97,87 %
22.05.2021 06:22 10,5 C 10,0 C 7,8 C 80 % 1001,2 hPa 0,0 l/m 0 min 0 min 47 W/m 57,9 km/h (7 Bft) 95,74 %
22.05.2021 06:24 10,6 C 10,0 C 7,8 C 80 % 1001,2 hPa 0,0 l/m 2 min 0 min 53 W/m 19,3 km/h (3 Bft) 93,62 %
22.05.2021 06:26 10,6 C 10,0 C 7,8 C 80 % 1001,2 hPa 0,0 l/m 2 min 0 min 54 W/m 22,5 km/h (4 Bft) 95,65 %
22.05.2021 06:28 10,6 C 10,0 C 7,8 C 80 % 1001,2 hPa 0,0 l/m 2 min 0 min 55 W/m 22,5 km/h (4 Bft) 95,74 %
22.05.2021 06:30 10,6 C 10,0 C 7,8 C 80 % 1001,1 hPa 0,0 l/m 0 min 0 min 55 W/m 32,2 km/h (5 Bft) 97,87 %
22.05.2021 06:32 10,6 C 10,0 C 7,8 C 80 % 1001,2 hPa 0,0 l/m 0 min 0 min 47 W/m 22,5 km/h (4 Bft) 95,74 %
22.05.2021 06:34 10,6 C 10,0 C 7,8 C 80 % 1001,1 hPa 0,0 l/m 0 min 0 min 43 W/m 25,7 km/h (4 Bft) 93,62 %
22.05.2021 06:36 10,6 C 10,0 C 7,8 C 80 % 1001,2 hPa 0,0 l/m 0 min 0 min 43 W/m 38,6 km/h (5 Bft) 95,74 %
22.05.2021 06:38 10,6 C 10,0 C 7,8 C 80 % 1001,2 hPa 0,0 l/m 0 min 0 min 41 W/m 25,7 km/h (4 Bft) 93,48 %
22.05.2021 06:40 10,6 C 10,0 C 7,8 C 80 % 1001,2 hPa 0,0 l/m 0 min 0 min 31 W/m 35,4 km/h (5 Bft) 95,74 %
22.05.2021 06:42 10,6 C 10,0 C 7,8 C 80 % 1001,3 hPa 0,0 l/m 0 min 0 min 27 W/m 25,7 km/h (4 Bft) 97,87 %
22.05.2021 06:44 10,6 C 10,0 C 7,8 C 80 % 1001,3 hPa 0,0 l/m 0 min 0 min 28 W/m 35,4 km/h (5 Bft) 95,74 %
22.05.2021 06:46 10,6 C 10,0 C 7,8 C 80 % 1001,3 hPa 0,0 l/m 0 min 0 min 27 W/m 35,4 km/h (5 Bft) 95,74 %
22.05.2021 06:48 10,6 C 10,0 C 7,8 C 80 % 1001,4 hPa 0,0 l/m 0 min 0 min 25 W/m 29,0 km/h (5 Bft) 97,83 %
22.05.2021 06:50 10,6 C 10,0 C 7,8 C 80 % 1001,4 hPa 0,0 l/m 0 min 0 min 23 W/m 48,3 km/h (6 Bft) 97,87 %
22.05.2021 06:52 10,6 C 10,0 C 7,8 C 80 % 1001,3 hPa 0,0 l/m 0 min 0 min 19 W/m 41,8 km/h (6 Bft) 95,74 %
22.05.2021 06:54 10,6 C 10,0 C 7,8 C 80 % 1001,3 hPa 0,0 l/m 0 min 0 min 26 W/m 25,7 km/h (4 Bft) 97,87 %
22.05.2021 06:56 10,6 C 10,0 C 7,8 C 80 % 1001,1 hPa 0,0 l/m 0 min 0 min 37 W/m 48,3 km/h (6 Bft) 97,87 %
22.05.2021 06:58 10,6 C 10,0 C 7,8 C 80 % 1001,2 hPa 0,0 l/m 0 min 0 min 44 W/m 32,2 km/h (5 Bft) 97,87 %
22.05.2021 07:00 10,6 C 10,0 C 7,8 C 80 % 1001,3 hPa 0,0 l/m 0 min 0 min 49 W/m 25,7 km/h (4 Bft) 97,83 %
22.05.2021 07:02 10,6 C 10,0 C 7,8 C 80 % 1001,2 hPa 0,0 l/m 0 min 0 min 50 W/m 29,0 km/h (5 Bft) 95,74 %
22.05.2021 07:04 10,6 C 10,0 C 7,8 C 80 % 1001,2 hPa 0,0 l/m 0 min 0 min 47 W/m 35,4 km/h (5 Bft) 97,87 %
22.05.2021 07:06 10,7 C 10,0 C 8,4 C 80 % 1001,2 hPa 0,0 l/m 0 min 0 min 47 W/m 38,6 km/h (5 Bft) 97,87 %
22.05.2021 07:08 10,7 C 10,0 C 8,4 C 80 % 1001,2 hPa 0,0 l/m 0 min 0 min 53 W/m 22,5 km/h (4 Bft) 97,87 %
22.05.2021 07:10 10,7 C 10,0 C 8,4 C 80 % 1001,2 hPa 0,0 l/m 0 min 0 min 62 W/m 35,4 km/h (5 Bft) 97,87 %
22.05.2021 07:12 10,8 C 10,6 C 8,4 C 80 % 1001,0 hPa 0,0 l/m 0 min 0 min 71 W/m 51,5 km/h (7 Bft) 100,00 %
22.05.2021 07:14 10,8 C 10,6 C 8,4 C 80 % 1001,2 hPa 0,0 l/m 0 min 0 min 80 W/m 38,6 km/h (5 Bft) 97,87 %
22.05.2021 07:16 10,8 C 10,6 C 8,4 C 80 % 1001,0 hPa 0,0 l/m 0 min 0 min 86 W/m 45,1 km/h (6 Bft) 97,87 %
22.05.2021 07:18 10,8 C 10,6 C 8,4 C 80 % 1001,1 hPa 0,0 l/m 0 min 0 min 90 W/m 38,6 km/h (5 Bft) 97,87 %
22.05.2021 07:20 10,9 C 10,6 C 8,4 C 79 % 1001,1 hPa 0,0 l/m 0 min 0 min 87 W/m 35,4 km/h (5 Bft) 97,87 %
22.05.2021 07:22 10,9 C 10,6 C 8,4 C 79 % 1001,1 hPa 0,0 l/m 0 min 0 min 82 W/m 35,4 km/h (5 Bft) 97,87 %
22.05.2021 07:24 10,9 C 10,6 C 8,4 C 79 % 1001,2 hPa 0,0 l/m 0 min 0 min 73 W/m 32,2 km/h (5 Bft) 97,83 %
22.05.2021 07:26 10,9 C 10,6 C 8,4 C 79 % 1001,3 hPa 0,0 l/m 0 min 0 min 67 W/m 32,2 km/h (5 Bft) 100,00 %
22.05.2021 07:28 10,9 C 10,6 C 8,4 C 79 % 1001,3 hPa 0,0 l/m 0 min 0 min 73 W/m 54,7 km/h (7 Bft) 100,00 %
22.05.2021 07:30 10,9 C 10,6 C 8,4 C 79 % 1001,2 hPa 0,0 l/m 0 min 0 min 80 W/m 35,4 km/h (5 Bft) 97,87 %
22.05.2021 07:32 10,9 C 10,6 C 8,4 C 79 % 1001,2 hPa 0,0 l/m 0 min 0 min 77 W/m 25,7 km/h (4 Bft) 100,00 %
22.05.2021 07:34 10,9 C 10,6 C 8,4 C 79 % 1001,2 hPa 0,0 l/m 0 min 0 min 79 W/m 29,0 km/h (5 Bft) 100,00 %
22.05.2021 07:36 10,9 C 10,6 C 8,4 C 79 % 1001,4 hPa 0,0 l/m 0 min 0 min 72 W/m 32,2 km/h (5 Bft) 97,83 %
22.05.2021 07:38 11,0 C 10,6 C 8,4 C 79 % 1001,3 hPa 0,0 l/m 0 min 0 min 63 W/m 29,0 km/h (5 Bft) 97,87 %
22.05.2021 07:40 11,0 C 10,6 C 8,4 C 79 % 1001,3 hPa 0,0 l/m 0 min 0 min 54 W/m 38,6 km/h (5 Bft) 97,87 %
22.05.2021 07:42 11,0 C 10,6 C 7,8 C 79 % 1001,3 hPa 0,0 l/m 0 min 2 min 51 W/m 54,7 km/h (7 Bft) 97,87 %
22.05.2021 07:44 11,0 C 10,6 C 7,8 C 80 % 1001,3 hPa 0,0 l/m 0 min 2 min 52 W/m 41,8 km/h (6 Bft) 95,74 %
22.05.2021 07:46 10,9 C 10,6 C 7,8 C 80 % 1001,4 hPa 0,0 l/m 0 min 2 min 58 W/m 45,1 km/h (6 Bft) 97,87 %
22.05.2021 07:48 10,9 C 10,6 C 7,8 C 80 % 1001,4 hPa 0,0 l/m 0 min 0 min 50 W/m 29,0 km/h (5 Bft) 95,65 %
22.05.2021 07:50 10,9 C 10,6 C 7,8 C 80 % 1001,3 hPa 0,0 l/m 0 min 0 min 45 W/m 45,1 km/h (6 Bft) 97,87 %
22.05.2021 07:52 10,9 C 10,0 C 7,8 C 80 % 1001,3 hPa 0,0 l/m 0 min 2 min 40 W/m 22,5 km/h (4 Bft) 97,87 %
22.05.2021 07:54 10,9 C 10,0 C 7,8 C 81 % 1001,3 hPa 0,0 l/m 0 min 2 min 45 W/m 35,4 km/h (5 Bft) 95,74 %
22.05.2021 07:56 10,9 C 10,0 C 7,8 C 81 % 1001,5 hPa 0,0 l/m 0 min 2 min 48 W/m 48,3 km/h (6 Bft) 97,87 %
22.05.2021 07:58 10,9 C 10,0 C 7,8 C 80 % 1001,3 hPa 0,0 l/m 0 min 2 min 56 W/m 48,3 km/h (6 Bft) 97,87 %
22.05.2021 08:00 10,9 C 10,6 C 7,8 C 80 % 1001,3 hPa 0,0 l/m 0 min 0 min 61 W/m 48,3 km/h (6 Bft) 97,83 %
22.05.2021 08:02 10,9 C 10,6 C 8,4 C 80 % 1001,4 hPa 0,0 l/m 0 min 2 min 68 W/m 32,2 km/h (5 Bft) 95,74 %
22.05.2021 08:04 10,9 C 10,0 C 7,8 C 81 % 1001,3 hPa 0,0 l/m 0 min 2 min 68 W/m 25,7 km/h (4 Bft) 97,87 %
22.05.2021 08:06 10,9 C 10,0 C 7,3 C 81 % 1001,5 hPa 0,0 l/m 0 min 2 min 60 W/m 38,6 km/h (5 Bft) 93,62 %
22.05.2021 08:08 10,8 C 10,0 C 6,7 C 82 % 1001,5 hPa 0,2 l/m 0 min 2 min 48 W/m 35,4 km/h (5 Bft) 97,87 %
22.05.2021 08:10 10,8 C 9,4 C 6,7 C 83 % 1001,5 hPa 0,0 l/m 0 min 2 min 40 W/m 29,0 km/h (5 Bft) 97,87 %
22.05.2021 08:12 10,7 C 9,4 C 6,7 C 83 % 1001,5 hPa 0,0 l/m 0 min 2 min 38 W/m 32,2 km/h (5 Bft) 97,83 %
22.05.2021 08:14 10,6 C 9,4 C 6,7 C 84 % 1001,5 hPa 0,0 l/m 0 min 2 min 35 W/m 29,0 km/h (5 Bft) 97,87 %
22.05.2021 08:16 10,5 C 9,4 C 6,1 C 84 % 1001,6 hPa 0,0 l/m 0 min 2 min 35 W/m 54,7 km/h (7 Bft) 97,87 %
22.05.2021 08:18 10,5 C 9,4 C 6,1 C 84 % 1001,5 hPa 0,0 l/m 0 min 2 min 37 W/m 41,8 km/h (6 Bft) 97,87 %
22.05.2021 08:20 10,5 C 10,0 C 6,7 C 84 % 1001,5 hPa 0,0 l/m 0 min 2 min 45 W/m 41,8 km/h (6 Bft) 95,74 %
22.05.2021 08:22 10,5 C 10,0 C 6,7 C 84 % 1001,6 hPa 0,0 l/m 0 min 2 min 53 W/m 41,8 km/h (6 Bft) 97,83 %
22.05.2021 08:24 10,5 C 10,0 C 6,7 C 84 % 1001,4 hPa 0,0 l/m 0 min 2 min 61 W/m 38,6 km/h (5 Bft) 97,87 %
22.05.2021 08:26 10,5 C 10,0 C 6,7 C 84 % 1001,4 hPa 0,0 l/m 0 min 2 min 72 W/m 22,5 km/h (4 Bft) 97,87 %
22.05.2021 08:28 10,5 C 10,0 C 6,7 C 84 % 1001,5 hPa 0,0 l/m 0 min 0 min 90 W/m 38,6 km/h (5 Bft) 97,87 %
22.05.2021 08:30 10,5 C 10,0 C 7,3 C 84 % 1001,5 hPa 0,0 l/m 0 min 2 min 87 W/m 54,7 km/h (7 Bft) 97,14 %
22.05.2021 08:32 10,5 C 10,0 C 7,3 C 84 % 1001,4 hPa 0,0 l/m 0 min 2 min 85 W/m 41,8 km/h (6 Bft) 93,62 %
22.05.2021 08:34 10,5 C 10,0 C 7,3 C 84 % 1001,7 hPa 0,0 l/m 0 min 2 min 95 W/m 51,5 km/h (7 Bft) 97,87 %
22.05.2021 08:36 10,6 C 10,0 C 7,3 C 84 % 1001,5 hPa 0,0 l/m 0 min 2 min 91 W/m 38,6 km/h (5 Bft) 96,55 %
22.05.2021 08:38 10,6 C 10,0 C 7,3 C 84 % 1001,5 hPa 0,0 l/m 0 min 2 min 77 W/m 41,8 km/h (6 Bft) 95,74 %
22.05.2021 08:40 10,6 C 10,0 C 7,3 C 84 % 1001,5 hPa 0,0 l/m 0 min 2 min 73 W/m 45,1 km/h (6 Bft) 100,00 %
22.05.2021 08:42 10,6 C 10,0 C 7,3 C 84 % 1001,6 hPa 0,0 l/m 0 min 2 min 77 W/m 51,5 km/h (7 Bft) 97,87 %
22.05.2021 08:44 10,6 C 10,0 C 7,3 C 84 % 1001,5 hPa 0,0 l/m 0 min 2 min 80 W/m 41,8 km/h (6 Bft) 93,10 %
22.05.2021 08:46 10,6 C 10,0 C 7,3 C 84 % 1001,8 hPa 0,0 l/m 0 min 2 min 73 W/m 32,2 km/h (5 Bft) 97,87 %
22.05.2021 08:48 10,6 C 10,0 C 7,3 C 84 % 1001,6 hPa 0,0 l/m 0 min 2 min 80 W/m 48,3 km/h (6 Bft) 95,74 %
22.05.2021 08:50 10,6 C 10,0 C 7,3 C 84 % 1001,6 hPa 0,0 l/m 0 min 2 min 83 W/m 45,1 km/h (6 Bft) 97,83 %
22.05.2021 08:52 10,6 C 10,0 C 7,3 C 84 % 1001,7 hPa 0,0 l/m 0 min 2 min 104 W/m 35,4 km/h (5 Bft) 97,87 %
22.05.2021 08:54 10,6 C 10,0 C 7,3 C 83 % 1001,8 hPa 0,0 l/m 0 min 2 min 122 W/m 45,1 km/h (6 Bft) 95,74 %
22.05.2021 08:56 10,6 C 10,6 C 7,3 C 83 % 1001,6 hPa 0,0 l/m 0 min 2 min 118 W/m 35,4 km/h (5 Bft) 97,87 %
22.05.2021 08:58 10,7 C 10,6 C 7,8 C 83 % 1001,7 hPa 0,0 l/m 0 min 2 min 107 W/m 35,4 km/h (5 Bft) 97,87 %
22.05.2021 09:00 10,7 C 10,6 C 7,8 C 83 % 1001,6 hPa 0,0 l/m 0 min 2 min 111 W/m 38,6 km/h (5 Bft) 97,87 %
22.05.2021 09:02 10,8 C 10,6 C 7,8 C 83 % 1001,8 hPa 0,0 l/m 0 min 0 min 113 W/m 51,5 km/h (7 Bft) 97,83 %
22.05.2021 09:04 10,8 C 10,6 C 7,8 C 83 % 1001,7 hPa 0,0 l/m 0 min 0 min 100 W/m 48,3 km/h (6 Bft) 95,74 %
22.05.2021 09:06 10,8 C 10,6 C 7,8 C 83 % 1001,6 hPa 0,0 l/m 0 min 0 min 93 W/m 35,4 km/h (5 Bft) 97,87 %
22.05.2021 09:08 10,8 C 10,6 C 7,8 C 82 % 1001,7 hPa 0,0 l/m 0 min 0 min 93 W/m 32,2 km/h (5 Bft) 97,92 %
22.05.2021 09:10 10,9 C 10,6 C 7,8 C 83 % 1001,7 hPa 0,0 l/m 0 min 0 min 90 W/m 35,4 km/h (5 Bft) 95,65 %
22.05.2021 09:12 10,9 C 10,6 C 8,4 C 82 % 1001,7 hPa 0,0 l/m 0 min 0 min 96 W/m 45,1 km/h (6 Bft) 95,74 %
22.05.2021 09:14 10,9 C 10,6 C 8,4 C 82 % 1001,7 hPa 0,0 l/m 0 min 0 min 91 W/m 35,4 km/h (5 Bft) 93,62 %
22.05.2021 09:16 10,9 C 10,6 C 8,4 C 82 % 1001,7 hPa 0,0 l/m 0 min 0 min 93 W/m 45,1 km/h (6 Bft) 97,87 %
22.05.2021 09:18 10,9 C 10,6 C 8,4 C 82 % 1001,7 hPa 0,0 l/m 0 min 0 min 115 W/m 45,1 km/h (6 Bft) 95,74 %
22.05.2021 09:20 10,9 C 10,6 C 8,4 C 82 % 1001,8 hPa 0,0 l/m 0 min 0 min 126 W/m 38,6 km/h (5 Bft) 97,87 %
22.05.2021 09:22 10,9 C 10,6 C 8,4 C 82 % 1001,8 hPa 0,0 l/m 0 min 0 min 98 W/m 41,8 km/h (6 Bft) 93,48 %
22.05.2021 09:24 10,9 C 10,6 C 8,4 C 82 % 1001,9 hPa 0,0 l/m 0 min 0 min 115 W/m 57,9 km/h (7 Bft) 93,62 %
22.05.2021 09:26 10,9 C 10,6 C 8,4 C 82 % 1002,1 hPa 0,0 l/m 0 min 0 min 117 W/m 54,7 km/h (7 Bft) 91,49 %
22.05.2021 09:28 10,9 C 10,6 C 8,4 C 82 % 1001,9 hPa 0,0 l/m 0 min 0 min 102 W/m 38,6 km/h (5 Bft) 95,74 %
22.05.2021 09:30 10,9 C 10,6 C 8,4 C 82 % 1001,9 hPa 0,0 l/m 0 min 0 min 115 W/m 35,4 km/h (5 Bft) 95,74 %
22.05.2021 09:32 10,9 C 10,6 C 7,8 C 83 % 1001,9 hPa 0,0 l/m 0 min 2 min 94 W/m 35,4 km/h (5 Bft) 97,87 %
22.05.2021 09:34 10,9 C 10,6 C 7,8 C 83 % 1002,0 hPa 0,0 l/m 0 min 0 min 97 W/m 29,0 km/h (5 Bft) 95,65 %
22.05.2021 09:36 10,8 C 10,0 C 7,8 C 83 % 1002,0 hPa 0,0 l/m 0 min 0 min 85 W/m 51,5 km/h (7 Bft) 97,87 %
22.05.2021 09:38 10,8 C 10,0 C 7,8 C 83 % 1002,0 hPa 0,0 l/m 0 min 2 min 83 W/m 35,4 km/h (5 Bft) 97,87 %
22.05.2021 09:40 10,7 C 10,0 C 7,8 C 84 % 1002,1 hPa 0,0 l/m 0 min 2 min 82 W/m 54,7 km/h (7 Bft) 97,87 %
22.05.2021 09:42 10,6 C 10,0 C 7,8 C 84 % 1002,1 hPa 0,0 l/m 0 min 2 min 81 W/m 35,4 km/h (5 Bft) 95,74 %
22.05.2021 09:44 10,6 C 10,0 C 7,8 C 85 % 1002,1 hPa 0,0 l/m 0 min 2 min 104 W/m 25,7 km/h (4 Bft) 97,87 %
22.05.2021 09:46 10,5 C 10,0 C 7,8 C 85 % 1002,1 hPa 0,0 l/m 0 min 2 min 106 W/m 35,4 km/h (5 Bft) 97,83 %
22.05.2021 09:48 10,5 C 10,0 C 7,8 C 85 % 1002,0 hPa 0,0 l/m 0 min 2 min 108 W/m 45,1 km/h (6 Bft) 93,62 %
22.05.2021 09:50 10,5 C 10,0 C 7,8 C 85 % 1002,0 hPa 0,0 l/m 0 min 2 min 126 W/m 45,1 km/h (6 Bft) 97,87 %
22.05.2021 09:52 10,5 C 10,0 C 7,8 C 85 % 1002,1 hPa 0,0 l/m 0 min 2 min 125 W/m 41,8 km/h (6 Bft) 97,87 %
22.05.2021 09:54 10,5 C 10,0 C 7,8 C 85 % 1002,1 hPa 0,0 l/m 0 min 2 min 109 W/m 35,4 km/h (5 Bft) 97,87 %
22.05.2021 09:56 10,5 C 10,0 C 7,8 C 85 % 1002,2 hPa 0,0 l/m 0 min 2 min 111 W/m 45,1 km/h (6 Bft) 95,74 %
22.05.2021 09:58 10,5 C 10,0 C 7,8 C 85 % 1002,2 hPa 0,0 l/m 0 min 2 min 99 W/m 32,2 km/h (5 Bft) 97,83 %
22.05.2021 10:00 10,5 C 10,0 C 7,8 C 85 % 1002,2 hPa 0,0 l/m 0 min 2 min 87 W/m 35,4 km/h (5 Bft) 97,87 %
22.05.2021 10:02 10,5 C 10,0 C 7,8 C 86 % 1002,2 hPa 0,0 l/m 0 min 2 min 87 W/m 32,2 km/h (5 Bft) 97,87 %
22.05.2021 10:04 10,5 C 10,0 C 7,8 C 86 % 1002,2 hPa 0,0 l/m 0 min 2 min 83 W/m 29,0 km/h (5 Bft) 95,12 %
22.05.2021 10:06 10,5 C 10,0 C 7,3 C 86 % 1002,2 hPa 0,0 l/m 0 min 2 min 91 W/m 51,5 km/h (7 Bft) 97,87 %
22.05.2021 10:08 10,4 C 9,4 C 6,7 C 86 % 1002,3 hPa 0,0 l/m 0 min 2 min 80 W/m 45,1 km/h (6 Bft) 97,92 %
22.05.2021 10:10 10,4 C 9,4 C 6,7 C 87 % 1002,4 hPa 0,0 l/m 0 min 2 min 87 W/m 38,6 km/h (5 Bft) 97,87 %
22.05.2021 10:12 10,3 C 9,4 C 6,7 C 87 % 1002,3 hPa 0,2 l/m 0 min 2 min 103 W/m 22,5 km/h (4 Bft) 95,74 %
22.05.2021 10:14 10,3 C 9,4 C 6,7 C 88 % 1002,3 hPa 0,0 l/m 0 min 2 min 83 W/m 29,0 km/h (5 Bft) 86,96 %
22.05.2021 10:16 10,3 C 9,4 C 6,7 C 88 % 1002,4 hPa 0,0 l/m 0 min 2 min 83 W/m 32,2 km/h (5 Bft) 67,39 %
22.05.2021 10:18 10,2 C 9,4 C 6,7 C 88 % 1002,4 hPa 0,0 l/m 0 min 2 min 97 W/m 45,1 km/h (6 Bft) 100,00 %
22.05.2021 10:20 10,1 C 9,4 C 6,7 C 88 % 1002,3 hPa 0,0 l/m 0 min 2 min 115 W/m 41,8 km/h (6 Bft) 97,87 %
22.05.2021 10:22 10,1 C 9,4 C 6,7 C 89 % 1002,3 hPa 0,0 l/m 0 min 2 min 105 W/m 54,7 km/h (7 Bft) 95,74 %
22.05.2021 10:24 10,1 C 9,4 C 6,7 C 89 % 1002,3 hPa 0,0 l/m 0 min 2 min 98 W/m 25,7 km/h (4 Bft) 97,87 %
22.05.2021 10:26 10,1 C 9,4 C 6,7 C 89 % 1002,3 hPa 0,0 l/m 0 min 2 min 94 W/m 35,4 km/h (5 Bft) 97,83 %
22.05.2021 10:28 10,1 C 9,4 C 6,7 C 89 % 1002,4 hPa 0,0 l/m 0 min 2 min 88 W/m 29,0 km/h (5 Bft) 100,00 %
22.05.2021 10:30 10,1 C 9,4 C 6,7 C 90 % 1002,4 hPa 0,0 l/m 0 min 2 min 79 W/m 25,7 km/h (4 Bft) 100,00 %
22.05.2021 10:32 10,1 C 9,4 C 6,7 C 90 % 1002,5 hPa 0,2 l/m 0 min 2 min 70 W/m 29,0 km/h (5 Bft) 97,87 %
22.05.2021 10:34 10,0 C 9,4 C 6,7 C 90 % 1002,5 hPa 0,0 l/m 0 min 2 min 74 W/m 29,0 km/h (5 Bft) 100,00 %
22.05.2021 10:36 10,0 C 9,4 C 6,7 C 90 % 1002,5 hPa 0,0 l/m 0 min 2 min 74 W/m 32,2 km/h (5 Bft) 95,74 %
22.05.2021 10:38 10,0 C 9,4 C 6,7 C 90 % 1002,5 hPa 0,0 l/m 0 min 2 min 69 W/m 19,3 km/h (3 Bft) 100,00 %
22.05.2021 10:40 10,0 C 9,4 C 6,7 C 90 % 1002,5 hPa 0,0 l/m 0 min 2 min 97 W/m 22,5 km/h (4 Bft) 100,00 %
22.05.2021 10:42 10,0 C 9,4 C 6,7 C 90 % 1002,5 hPa 0,0 l/m 0 min 2 min 131 W/m 48,3 km/h (6 Bft) 100,00 %
22.05.2021 10:44 10,0 C 9,4 C 6,7 C 90 % 1002,4 hPa 0,0 l/m 0 min 2 min 139 W/m 41,8 km/h (6 Bft) 100,00 %
22.05.2021 10:46 10,1 C 9,4 C 6,7 C 90 % 1002,5 hPa 0,0 l/m 0 min 2 min 132 W/m 45,1 km/h (6 Bft) 100,00 %
22.05.2021 10:48 10,1 C 9,4 C 6,7 C 90 % 1002,4 hPa 0,0 l/m 0 min 2 min 135 W/m 35,4 km/h (5 Bft) 100,00 %
22.05.2021 10:50 10,1 C 9,4 C 6,7 C 90 % 1002,4 hPa 0,0 l/m 0 min 2 min 145 W/m 35,4 km/h (5 Bft) 100,00 %
22.05.2021 10:52 10,1 C 9,4 C 7,3 C 90 % 1002,5 hPa 0,0 l/m 0 min 2 min 140 W/m 35,4 km/h (5 Bft) 97,87 %
22.05.2021 10:54 10,1 C 9,4 C 7,3 C 90 % 1002,5 hPa 0,0 l/m 0 min 2 min 137 W/m 38,6 km/h (5 Bft) 97,87 %
22.05.2021 10:56 10,1 C 9,4 C 7,3 C 90 % 1002,6 hPa 0,0 l/m 0 min 2 min 110 W/m 22,5 km/h (4 Bft) 100,00 %
22.05.2021 10:58 10,2 C 9,4 C 7,3 C 91 % 1002,6 hPa 0,0 l/m 0 min 2 min 95 W/m 35,4 km/h (5 Bft) 100,00 %
22.05.2021 11:00 10,1 C 9,4 C 7,3 C 91 % 1002,6 hPa 0,0 l/m 0 min 2 min 90 W/m 25,7 km/h (4 Bft) 100,00 %
22.05.2021 11:02 10,1 C 9,4 C 7,3 C 90 % 1002,6 hPa 0,0 l/m 0 min 2 min 106 W/m 29,0 km/h (5 Bft) 100,00 %
22.05.2021 11:04 10,1 C 9,4 C 7,3 C 90 % 1002,6 hPa 0,0 l/m 0 min 2 min 126 W/m 41,8 km/h (6 Bft) 97,87 %
22.05.2021 11:06 10,1 C 9,4 C 7,3 C 90 % 1002,6 hPa 0,0 l/m 0 min 2 min 128 W/m 35,4 km/h (5 Bft) 97,87 %
22.05.2021 11:08 10,2 C 10,0 C 7,3 C 91 % 1002,5 hPa 0,0 l/m 0 min 2 min 148 W/m 29,0 km/h (5 Bft) 100,00 %
22.05.2021 11:10 10,3 C 10,0 C 7,3 C 90 % 1002,6 hPa 0,0 l/m 0 min 2 min 160 W/m 48,3 km/h (6 Bft) 97,87 %
22.05.2021 11:12 10,3 C 10,0 C 7,3 C 90 % 1002,6 hPa 0,0 l/m 0 min 2 min 191 W/m 35,4 km/h (5 Bft) 100,00 %
22.05.2021 11:14 10,4 C 10,0 C 7,3 C 90 % 1002,6 hPa 0,0 l/m 0 min 2 min 200 W/m 35,4 km/h (5 Bft) 100,00 %
22.05.2021 11:16 10,5 C 10,0 C 7,3 C 90 % 1002,6 hPa 0,0 l/m 0 min 2 min 229 W/m 35,4 km/h (5 Bft) 100,00 %
22.05.2021 11:18 10,5 C 10,6 C 7,8 C 90 % 1002,6 hPa 0,0 l/m 0 min 0 min 294 W/m 41,8 km/h (6 Bft) 100,00 %
22.05.2021 11:20 10,6 C 11,1 C 7,8 C 89 % 1002,5 hPa 0,0 l/m 2 min 2 min 398 W/m 35,4 km/h (5 Bft) 97,83 %
22.05.2021 11:22 10,8 C 11,1 C 8,4 C 89 % 1002,5 hPa 0,0 l/m 2 min 2 min 456 W/m 41,8 km/h (6 Bft) 100,00 %
22.05.2021 11:24 11,0 C 11,7 C 8,4 C 88 % 1002,7 hPa 0,0 l/m 2 min 0 min 455 W/m 32,2 km/h (5 Bft) 97,87 %
22.05.2021 11:26 11,1 C 12,2 C 8,9 C 88 % 1002,7 hPa 0,0 l/m 2 min 0 min 489 W/m 41,8 km/h (6 Bft) 100,00 %
22.05.2021 11:28 11,3 C 12,2 C 8,9 C 88 % 1002,6 hPa 0,0 l/m 2 min 0 min 497 W/m 41,8 km/h (6 Bft) 100,00 %
22.05.2021 11:30 11,5 C 12,2 C 8,9 C 87 % 1002,6 hPa 0,0 l/m 0 min 0 min 372 W/m 22,5 km/h (4 Bft) 100,00 %
22.05.2021 11:32 11,5 C 12,2 C 8,9 C 87 % 1002,5 hPa 0,0 l/m 0 min 2 min 368 W/m 29,0 km/h (5 Bft) 97,83 %
22.05.2021 11:34 11,6 C 12,2 C 8,9 C 87 % 1002,5 hPa 0,0 l/m 0 min 0 min 370 W/m 29,0 km/h (5 Bft) 100,00 %
22.05.2021 11:36 11,6 C 12,2 C 8,9 C 86 % 1002,6 hPa 0,0 l/m 2 min 0 min 442 W/m 45,1 km/h (6 Bft) 97,87 %
22.05.2021 11:38 11,6 C 11,7 C 8,9 C 85 % 1002,6 hPa 0,0 l/m 2 min 0 min 428 W/m 48,3 km/h (6 Bft) 95,74 %
22.05.2021 11:40 11,7 C 11,7 C 8,9 C 85 % 1002,6 hPa 0,0 l/m 0 min 0 min 364 W/m 35,4 km/h (5 Bft) 95,74 %
22.05.2021 11:42 11,7 C 12,2 C 8,9 C 86 % 1002,7 hPa 0,0 l/m 0 min 0 min 352 W/m 51,5 km/h (7 Bft) 95,74 %
22.05.2021 11:44 11,7 C 11,7 C 8,9 C 85 % 1002,7 hPa 0,0 l/m 0 min 0 min 347 W/m 48,3 km/h (6 Bft) 97,83 %
22.05.2021 11:46 11,7 C 11,7 C 8,9 C 85 % 1002,7 hPa 0,0 l/m 0 min 0 min 278 W/m 38,6 km/h (5 Bft) 97,87 %
22.05.2021 11:48 11,7 C 11,7 C 8,9 C 85 % 1002,8 hPa 0,0 l/m 0 min 0 min 281 W/m 45,1 km/h (6 Bft) 97,87 %
22.05.2021 11:50 11,7 C 11,7 C 8,9 C 86 % 1002,8 hPa 0,0 l/m 0 min 0 min 295 W/m 19,3 km/h (3 Bft) 97,87 %
22.05.2021 11:52 11,7 C 11,7 C 8,9 C 86 % 1002,7 hPa 0,0 l/m 0 min 0 min 298 W/m 38,6 km/h (5 Bft) 97,87 %
22.05.2021 11:54 11,7 C 11,7 C 8,9 C 85 % 1002,8 hPa 0,0 l/m 0 min 0 min 298 W/m 32,2 km/h (5 Bft) 97,87 %
22.05.2021 11:56 11,7 C 11,7 C 8,9 C 86 % 1002,8 hPa 0,0 l/m 0 min 0 min 271 W/m 32,2 km/h (5 Bft) 97,83 %
22.05.2021 11:58 11,7 C 11,7 C 8,9 C 86 % 1002,8 hPa 0,0 l/m 0 min 0 min 258 W/m 25,7 km/h (4 Bft) 95,74 %
22.05.2021 12:00 11,6 C 11,7 C 8,9 C 86 % 1002,8 hPa 0,0 l/m 0 min 2 min 235 W/m 29,0 km/h (5 Bft) 95,74 %
22.05.2021 12:02 11,6 C 11,7 C 8,9 C 86 % 1002,9 hPa 0,0 l/m 0 min 2 min 217 W/m 32,2 km/h (5 Bft) 93,62 %
22.05.2021 12:04 11,6 C 11,1 C 8,9 C 86 % 1002,9 hPa 0,0 l/m 0 min 2 min 233 W/m 38,6 km/h (5 Bft) 93,75 %
22.05.2021 12:08 11,6 C 11,1 C 8,9 C 87 % 1003,0 hPa 0,0 l/m 0 min 4 min 262 W/m 38,6 km/h (5 Bft) 95,74 %
22.05.2021 12:10 11,5 C 11,1 C 8,9 C 86 % 1003,0 hPa 0,0 l/m 0 min 2 min 284 W/m 48,3 km/h (6 Bft) 97,83 %
22.05.2021 12:12 11,5 C 11,1 C 8,4 C 86 % 1003,2 hPa 0,0 l/m 0 min 2 min 246 W/m 38,6 km/h (5 Bft) 95,74 %
22.05.2021 12:14 11,4 C 11,1 C 8,4 C 87 % 1003,0 hPa 0,0 l/m 0 min 2 min 256 W/m 38,6 km/h (5 Bft) 91,49 %
22.05.2021 12:16 11,4 C 11,1 C 8,4 C 87 % 1003,1 hPa 0,0 l/m 0 min 2 min 215 W/m 45,1 km/h (6 Bft) 95,74 %
22.05.2021 12:18 11,4 C 11,1 C 8,4 C 87 % 1003,1 hPa 0,0 l/m 0 min 2 min 222 W/m 19,3 km/h (3 Bft) 95,74 %
22.05.2021 12:20 11,4 C 11,1 C 8,4 C 88 % 1003,1 hPa 0,0 l/m 0 min 2 min 248 W/m 25,7 km/h (4 Bft) 95,74 %
22.05.2021 12:22 11,4 C 11,1 C 8,9 C 88 % 1003,2 hPa 0,0 l/m 0 min 2 min 211 W/m 29,0 km/h (5 Bft) 95,65 %
22.05.2021 12:24 11,4 C 11,1 C 8,9 C 88 % 1003,2 hPa 0,0 l/m 0 min 2 min 208 W/m 29,0 km/h (5 Bft) 95,74 %
22.05.2021 12:26 11,4 C 11,1 C 8,9 C 88 % 1003,3 hPa 0,0 l/m 0 min 2 min 225 W/m 25,7 km/h (4 Bft) 95,74 %
22.05.2021 12:28 11,4 C 11,7 C 8,9 C 88 % 1003,3 hPa 0,0 l/m 0 min 2 min 305 W/m 25,7 km/h (4 Bft) 95,74 %
22.05.2021 12:30 11,5 C 11,7 C 8,9 C 88 % 1003,3 hPa 0,0 l/m 0 min 2 min 352 W/m 48,3 km/h (6 Bft) 94,59 %
22.05.2021 12:32 11,5 C 11,7 C 9,5 C 88 % 1003,4 hPa 0,0 l/m 0 min 2 min 345 W/m 51,5 km/h (7 Bft) 95,74 %
22.05.2021 12:34 11,5 C 11,7 C 9,5 C 87 % 1003,3 hPa 0,0 l/m 0 min 2 min 333 W/m 29,0 km/h (5 Bft) 93,48 %
22.05.2021 12:36 11,6 C 11,7 C 9,5 C 88 % 1003,4 hPa 0,0 l/m 0 min 2 min 341 W/m 25,7 km/h (4 Bft) 95,74 %
22.05.2021 12:38 11,7 C 11,7 C 9,5 C 88 % 1003,3 hPa 0,0 l/m 0 min 2 min 303 W/m 38,6 km/h (5 Bft) 95,74 %
22.05.2021 12:40 11,8 C 11,7 C 9,5 C 88 % 1003,4 hPa 0,0 l/m 0 min 2 min 222 W/m 48,3 km/h (6 Bft) 93,62 %
22.05.2021 12:42 11,8 C 11,7 C 9,5 C 87 % 1003,4 hPa 0,0 l/m 0 min 2 min 222 W/m 45,1 km/h (6 Bft) 95,74 %
22.05.2021 12:44 11,7 C 11,7 C 9,5 C 87 % 1003,4 hPa 0,0 l/m 0 min 2 min 244 W/m 35,4 km/h (5 Bft) 96,49 %
22.05.2021 12:46 11,7 C 11,7 C 9,5 C 87 % 1003,5 hPa 0,0 l/m 0 min 2 min 244 W/m 16,1 km/h (3 Bft) 95,65 %
22.05.2021 12:48 11,7 C 11,7 C 9,5 C 88 % 1003,6 hPa 0,0 l/m 0 min 2 min 217 W/m 35,4 km/h (5 Bft) 95,74 %
22.05.2021 12:50 11,6 C 11,1 C 9,5 C 87 % 1003,5 hPa 0,0 l/m 0 min 2 min 191 W/m 38,6 km/h (5 Bft) 93,62 %
22.05.2021 12:52 11,6 C 11,1 C 8,9 C 88 % 1003,6 hPa 0,0 l/m 0 min 2 min 167 W/m 32,2 km/h (5 Bft) 95,74 %
22.05.2021 12:54 11,5 C 11,1 C 8,9 C 88 % 1003,6 hPa 0,0 l/m 0 min 2 min 159 W/m 48,3 km/h (6 Bft) 95,74 %
22.05.2021 12:56 11,5 C 11,1 C 8,9 C 88 % 1003,7 hPa 0,0 l/m 0 min 2 min 202 W/m 29,0 km/h (5 Bft) 95,74 %
22.05.2021 12:58 11,5 C 11,1 C 8,9 C 88 % 1003,6 hPa 0,0 l/m 0 min 2 min 215 W/m 32,2 km/h (5 Bft) 95,65 %
22.05.2021 13:00 11,5 C 11,7 C 8,9 C 89 % 1003,6 hPa 0,0 l/m 0 min 2 min 266 W/m 22,5 km/h (4 Bft) 95,74 %
22.05.2021 13:02 11,5 C 11,7 C 8,9 C 88 % 1003,6 hPa 0,0 l/m 0 min 2 min 258 W/m 32,2 km/h (5 Bft) 95,74 %
22.05.2021 13:04 11,5 C 11,7 C 8,9 C 88 % 1003,7 hPa 0,0 l/m 0 min 2 min 298 W/m 48,3 km/h (6 Bft) 93,62 %
22.05.2021 13:06 11,5 C 11,7 C 8,9 C 88 % 1003,6 hPa 0,0 l/m 0 min 2 min 268 W/m 64,4 km/h (8 Bft) 95,74 %
22.05.2021 13:08 11,5 C 11,7 C 8,9 C 88 % 1003,6 hPa 0,0 l/m 0 min 2 min 303 W/m 35,4 km/h (5 Bft) 95,74 %
22.05.2021 13:10 11,6 C 11,7 C 9,5 C 88 % 1003,7 hPa 0,0 l/m 0 min 2 min 304 W/m 45,1 km/h (6 Bft) 95,65 %
22.05.2021 13:12 11,6 C 11,7 C 8,9 C 88 % 1003,7 hPa 0,0 l/m 0 min 2 min 291 W/m 38,6 km/h (5 Bft) 97,30 %
22.05.2021 13:14 11,6 C 11,7 C 9,5 C 88 % 1003,6 hPa 0,0 l/m 0 min 2 min 342 W/m 38,6 km/h (5 Bft) 97,87 %
22.05.2021 13:16 11,7 C 11,7 C 9,5 C 88 % 1003,7 hPa 0,0 l/m 0 min 2 min 288 W/m 38,6 km/h (5 Bft) 95,74 %
22.05.2021 13:18 11,8 C 12,2 C 9,5 C 88 % 1003,7 hPa 0,0 l/m 0 min 0 min 330 W/m 48,3 km/h (6 Bft) 97,87 %
22.05.2021 13:20 11,8 C 12,2 C 9,5 C 88 % 1003,7 hPa 0,0 l/m 0 min 0 min 334 W/m 32,2 km/h (5 Bft) 100,00 %
22.05.2021 13:22 11,9 C 12,2 C 9,5 C 87 % 1003,7 hPa 0,0 l/m 0 min 2 min 314 W/m 54,7 km/h (7 Bft) 100,00 %
22.05.2021 13:24 11,9 C 12,2 C 9,5 C 87 % 1003,8 hPa 0,0 l/m 0 min 2 min 291 W/m 41,8 km/h (6 Bft) 100,00 %
22.05.2021 13:26 11,9 C 11,7 C 9,5 C 87 % 1003,9 hPa 0,0 l/m 0 min 2 min 310 W/m 35,4 km/h (5 Bft) 97,87 %
22.05.2021 13:28 11,9 C 11,7 C 9,5 C 86 % 1003,9 hPa 0,0 l/m 0 min 2 min 274 W/m 54,7 km/h (7 Bft) 100,00 %
22.05.2021 13:30 11,9 C 12,2 C 10,0 C 87 % 1003,9 hPa 0,0 l/m 0 min 2 min 283 W/m 35,4 km/h (5 Bft) 100,00 %
22.05.2021 13:32 11,9 C 12,2 C 10,0 C 87 % 1003,9 hPa 0,0 l/m 0 min 0 min 346 W/m 38,6 km/h (5 Bft) 97,83 %
22.05.2021 13:34 11,9 C 12,2 C 10,0 C 87 % 1003,9 hPa 0,0 l/m 0 min 2 min 295 W/m 41,8 km/h (6 Bft) 100,00 %
22.05.2021 13:36 11,9 C 12,2 C 10,0 C 87 % 1003,9 hPa 0,0 l/m 0 min 2 min 299 W/m 45,1 km/h (6 Bft) 97,87 %
22.05.2021 13:38 11,9 C 12,2 C 10,0 C 87 % 1003,9 hPa 0,0 l/m 0 min 2 min 306 W/m 48,3 km/h (6 Bft) 100,00 %
22.05.2021 13:40 12,0 C 12,2 C 10,0 C 87 % 1003,9 hPa 0,0 l/m 0 min 0 min 387 W/m 35,4 km/h (5 Bft) 95,83 %
22.05.2021 13:42 12,0 C 12,2 C 10,0 C 87 % 1003,9 hPa 0,0 l/m 2 min 2 min 437 W/m 41,8 km/h (6 Bft) 100,00 %
22.05.2021 13:44 12,0 C 12,2 C 10,0 C 87 % 1004,0 hPa 0,0 l/m 0 min 2 min 395 W/m 54,7 km/h (7 Bft) 100,00 %
22.05.2021 13:46 12,1 C 12,2 C 10,6 C 87 % 1003,9 hPa 0,0 l/m 0 min 2 min 386 W/m 41,8 km/h (6 Bft) 100,00 %
22.05.2021 13:48 12,2 C 12,2 C 10,6 C 87 % 1004,1 hPa 0,0 l/m 0 min 2 min 340 W/m 38,6 km/h (5 Bft) 100,00 %
22.05.2021 13:50 12,2 C 12,2 C 10,6 C 87 % 1004,0 hPa 0,0 l/m 0 min 2 min 332 W/m 38,6 km/h (5 Bft) 100,00 %
22.05.2021 13:52 12,3 C 12,2 C 10,6 C 87 % 1004,1 hPa 0,0 l/m 0 min 0 min 255 W/m 29,0 km/h (5 Bft) 100,00 %
22.05.2021 13:54 12,3 C 12,2 C 10,6 C 86 % 1004,2 hPa 0,0 l/m 0 min 0 min 251 W/m 45,1 km/h (6 Bft) 100,00 %
22.05.2021 13:56 12,3 C 12,2 C 10,6 C 86 % 1004,1 hPa 0,0 l/m 0 min 2 min 248 W/m 45,1 km/h (6 Bft) 100,00 %
22.05.2021 13:58 12,3 C 12,2 C 10,6 C 86 % 1004,1 hPa 0,0 l/m 0 min 2 min 205 W/m 32,2 km/h (5 Bft) 100,00 %
22.05.2021 14:00 12,2 C 12,2 C 10,0 C 86 % 1004,2 hPa 0,0 l/m 0 min 2 min 219 W/m 41,8 km/h (6 Bft) 100,00 %
22.05.2021 14:02 12,2 C 12,2 C 10,0 C 86 % 1004,2 hPa 0,0 l/m 0 min 0 min 232 W/m 35,4 km/h (5 Bft) 100,00 %
22.05.2021 14:04 12,3 C 12,2 C 10,0 C 86 % 1004,2 hPa 0,0 l/m 0 min 0 min 237 W/m 41,8 km/h (6 Bft) 100,00 %
22.05.2021 14:06 12,3 C 12,2 C 10,0 C 86 % 1004,2 hPa 0,0 l/m 0 min 0 min 162 W/m 41,8 km/h (6 Bft) 100,00 %
22.05.2021 14:08 12,3 C 12,2 C 10,0 C 86 % 1004,3 hPa 0,0 l/m 0 min 2 min 214 W/m 35,4 km/h (5 Bft) 97,83 %
22.05.2021 14:10 12,3 C 12,2 C 10,0 C 86 % 1004,3 hPa 0,0 l/m 0 min 2 min 232 W/m 29,0 km/h (5 Bft) 100,00 %
22.05.2021 14:12 12,3 C 12,2 C 10,0 C 85 % 1004,3 hPa 0,0 l/m 0 min 2 min 228 W/m 41,8 km/h (6 Bft) 100,00 %
22.05.2021 14:14 12,3 C 12,2 C 10,0 C 85 % 1004,3 hPa 0,0 l/m 0 min 2 min 218 W/m 45,1 km/h (6 Bft) 100,00 %
22.05.2021 14:16 12,3 C 12,2 C 10,0 C 85 % 1004,4 hPa 0,0 l/m 0 min 0 min 228 W/m 32,2 km/h (5 Bft) 100,00 %
22.05.2021 14:18 12,3 C 12,2 C 10,0 C 85 % 1004,5 hPa 0,0 l/m 0 min 2 min 202 W/m 38,6 km/h (5 Bft) 97,87 %
22.05.2021 14:20 12,3 C 12,2 C 10,0 C 85 % 1004,4 hPa 0,0 l/m 0 min 2 min 207 W/m 29,0 km/h (5 Bft) 97,87 %
22.05.2021 14:22 12,3 C 12,2 C 10,0 C 85 % 1004,5 hPa 0,0 l/m 0 min 2 min 216 W/m 25,7 km/h (4 Bft) 97,87 %
22.05.2021 14:24 12,3 C 12,2 C 10,0 C 85 % 1004,5 hPa 0,0 l/m 0 min 2 min 164 W/m 35,4 km/h (5 Bft) 97,87 %
22.05.2021 14:26 12,4 C 12,2 C 10,0 C 86 % 1004,6 hPa 0,0 l/m 0 min 2 min 178 W/m 32,2 km/h (5 Bft) 97,87 %
22.05.2021 14:28 12,3 C 12,2 C 9,5 C 86 % 1004,6 hPa 0,0 l/m 0 min 2 min 242 W/m 41,8 km/h (6 Bft) 97,83 %
22.05.2021 14:30 12,3 C 12,2 C 9,5 C 86 % 1004,6 hPa 0,0 l/m 0 min 2 min 293 W/m 29,0 km/h (5 Bft) 95,74 %
22.05.2021 14:32 12,3 C 12,2 C 9,5 C 86 % 1004,7 hPa 0,0 l/m 0 min 2 min 247 W/m 29,0 km/h (5 Bft) 95,74 %
22.05.2021 14:34 12,2 C 12,2 C 9,5 C 87 % 1004,6 hPa 0,0 l/m 0 min 2 min 192 W/m 22,5 km/h (4 Bft) 97,87 %
22.05.2021 14:36 12,2 C 11,7 C 9,5 C 87 % 1004,7 hPa 0,0 l/m 0 min 2 min 176 W/m 32,2 km/h (5 Bft) 97,56 %
22.05.2021 14:38 12,1 C 11,7 C 9,5 C 87 % 1004,7 hPa 0,0 l/m 0 min 2 min 144 W/m 29,0 km/h (5 Bft) 97,87 %
22.05.2021 14:40 12,1 C 11,7 C 9,5 C 88 % 1004,7 hPa 0,0 l/m 0 min 2 min 140 W/m 29,0 km/h (5 Bft) 97,87 %
22.05.2021 14:42 12,1 C 11,7 C 9,5 C 88 % 1004,8 hPa 0,2 l/m 0 min 2 min 158 W/m 12,9 km/h (3 Bft) 97,87 %
22.05.2021 14:44 12,1 C 11,7 C 9,5 C 88 % 1004,8 hPa 0,0 l/m 0 min 2 min 174 W/m 16,1 km/h (3 Bft) 97,83 %
22.05.2021 14:46 12,1 C 11,7 C 8,9 C 88 % 1004,9 hPa 0,0 l/m 0 min 2 min 140 W/m 16,1 km/h (3 Bft) 97,87 %
22.05.2021 14:48 12,0 C 11,7 C 8,9 C 89 % 1004,9 hPa 0,0 l/m 0 min 2 min 119 W/m 22,5 km/h (4 Bft) 97,87 %
22.05.2021 14:50 12,0 C 11,7 C 8,9 C 89 % 1004,9 hPa 0,0 l/m 0 min 2 min 132 W/m 19,3 km/h (3 Bft) 97,87 %
22.05.2021 14:52 12,0 C 11,7 C 8,9 C 89 % 1004,9 hPa 0,0 l/m 0 min 2 min 112 W/m 41,8 km/h (6 Bft) 97,87 %
22.05.2021 14:54 11,9 C 11,1 C 8,9 C 89 % 1004,9 hPa 0,0 l/m 0 min 2 min 123 W/m 19,3 km/h (3 Bft) 54,55 %
22.05.2021 14:56 11,8 C 11,1 C 8,9 C 89 % 1004,9 hPa 0,0 l/m 0 min 2 min 124 W/m 32,2 km/h (5 Bft) 97,50 %
22.05.2021 14:58 11,8 C 11,1 C 8,9 C 89 % 1005,0 hPa 0,0 l/m 0 min 2 min 92 W/m 16,1 km/h (3 Bft) 97,87 %
22.05.2021 15:00 11,8 C 11,1 C 8,9 C 89 % 1004,9 hPa 0,0 l/m 0 min 2 min 99 W/m 19,3 km/h (3 Bft) 97,87 %
22.05.2021 15:02 11,8 C 11,1 C 8,9 C 89 % 1005,0 hPa 0,0 l/m 0 min 2 min 86 W/m 12,9 km/h (3 Bft) 97,87 %
22.05.2021 15:04 11,8 C 11,1 C 8,9 C 90 % 1005,1 hPa 0,0 l/m 0 min 2 min 78 W/m 16,1 km/h (3 Bft) 95,74 %
22.05.2021 15:06 11,8 C 11,1 C 8,9 C 90 % 1005,0 hPa 0,0 l/m 0 min 2 min 87 W/m 35,4 km/h (5 Bft) 100,00 %
22.05.2021 15:08 11,7 C 11,1 C 8,4 C 90 % 1005,0 hPa 0,0 l/m 0 min 2 min 78 W/m 25,7 km/h (4 Bft) 100,00 %
22.05.2021 15:10 11,6 C 11,1 C 8,4 C 90 % 1005,1 hPa 0,0 l/m 0 min 2 min 79 W/m 22,5 km/h (4 Bft) 100,00 %
22.05.2021 15:12 11,6 C 11,1 C 8,4 C 90 % 1005,2 hPa 0,2 l/m 0 min 2 min 69 W/m 16,1 km/h (3 Bft) 97,87 %
22.05.2021 15:14 11,6 C 11,1 C 8,4 C 90 % 1005,3 hPa 0,0 l/m 0 min 2 min 77 W/m 16,1 km/h (3 Bft) 97,87 %
22.05.2021 15:16 11,6 C 10,6 C 8,4 C 90 % 1005,3 hPa 0,0 l/m 0 min 2 min 81 W/m 22,5 km/h (4 Bft) 97,87 %
22.05.2021 15:18 11,6 C 10,6 C 8,4 C 90 % 1005,2 hPa 0,0 l/m 0 min 2 min 133 W/m 25,7 km/h (4 Bft) 100,00 %
22.05.2021 15:20 11,5 C 10,6 C 8,4 C 91 % 1005,4 hPa 0,2 l/m 0 min 2 min 130 W/m 22,5 km/h (4 Bft) 100,00 %
22.05.2021 15:22 11,4 C 10,6 C 8,4 C 91 % 1005,4 hPa 0,0 l/m 0 min 2 min 116 W/m 41,8 km/h (6 Bft) 100,00 %
22.05.2021 15:24 11,4 C 10,6 C 8,4 C 91 % 1005,3 hPa 0,0 l/m 0 min 2 min 150 W/m 32,2 km/h (5 Bft) 100,00 %
22.05.2021 15:26 11,4 C 10,6 C 8,4 C 91 % 1005,4 hPa 0,0 l/m 0 min 2 min 164 W/m 16,1 km/h (3 Bft) 97,87 %
22.05.2021 15:28 11,4 C 10,6 C 8,4 C 92 % 1005,4 hPa 0,0 l/m 0 min 2 min 200 W/m 16,1 km/h (3 Bft) 97,87 %
22.05.2021 15:30 11,4 C 11,1 C 8,4 C 92 % 1005,4 hPa 0,0 l/m 0 min 2 min 202 W/m 19,3 km/h (3 Bft) 100,00 %
22.05.2021 15:32 11,4 C 11,1 C 8,4 C 92 % 1005,5 hPa 0,0 l/m 0 min 2 min 192 W/m 22,5 km/h (4 Bft) 100,00 %
22.05.2021 15:34 11,4 C 11,1 C 8,9 C 92 % 1005,5 hPa 0,0 l/m 0 min 2 min 219 W/m 19,3 km/h (3 Bft) 100,00 %
22.05.2021 15:36 11,4 C 11,1 C 8,9 C 92 % 1005,5 hPa 0,0 l/m 0 min 2 min 211 W/m 29,0 km/h (5 Bft) 97,87 %
22.05.2021 15:38 11,4 C 11,1 C 8,9 C 92 % 1005,6 hPa 0,0 l/m 0 min 2 min 214 W/m 25,7 km/h (4 Bft) 97,87 %
22.05.2021 15:40 11,4 C 11,1 C 8,4 C 92 % 1005,4 hPa 0,0 l/m 0 min 2 min 236 W/m 25,7 km/h (4 Bft) 97,50 %
22.05.2021 15:42 11,4 C 11,1 C 8,9 C 92 % 1005,5 hPa 0,2 l/m 0 min 2 min 238 W/m 25,7 km/h (4 Bft) 97,83 %
22.05.2021 15:44 11,5 C 11,1 C 8,9 C 92 % 1005,5 hPa 0,0 l/m 0 min 2 min 224 W/m 19,3 km/h (3 Bft) 95,74 %
22.05.2021 15:46 11,5 C 11,1 C 8,9 C 92 % 1005,5 hPa 0,0 l/m 0 min 2 min 173 W/m 16,1 km/h (3 Bft) 97,87 %
22.05.2021 15:48 11,5 C 11,1 C 8,9 C 92 % 1005,5 hPa 0,0 l/m 0 min 2 min 147 W/m 35,4 km/h (5 Bft) 97,87 %
22.05.2021 15:50 11,4 C 11,1 C 8,9 C 92 % 1005,6 hPa 0,0 l/m 0 min 2 min 150 W/m 29,0 km/h (5 Bft) 97,87 %
22.05.2021 15:52 11,5 C 11,1 C 8,9 C 93 % 1005,6 hPa 0,0 l/m 0 min 2 min 158 W/m 16,1 km/h (3 Bft) 97,87 %
22.05.2021 15:54 11,5 C 11,1 C 8,9 C 93 % 1005,6 hPa 0,0 l/m 0 min 2 min 169 W/m 12,9 km/h (3 Bft) 96,30 %
22.05.2021 15:56 11,5 C 11,1 C 8,9 C 93 % 1005,6 hPa 0,0 l/m 0 min 2 min 188 W/m 25,7 km/h (4 Bft) 97,83 %
22.05.2021 15:58 11,5 C 11,1 C 8,9 C 93 % 1005,6 hPa 0,0 l/m 0 min 2 min 214 W/m 22,5 km/h (4 Bft) 95,74 %
22.05.2021 16:00 11,5 C 11,1 C 8,9 C 93 % 1005,7 hPa 0,0 l/m 0 min 2 min 223 W/m 25,7 km/h (4 Bft) 97,87 %
22.05.2021 16:02 11,5 C 11,1 C 8,9 C 93 % 1005,6 hPa 0,0 l/m 0 min 2 min 192 W/m 35,4 km/h (5 Bft) 97,87 %
22.05.2021 16:04 11,5 C 11,1 C 8,9 C 93 % 1005,7 hPa 0,0 l/m 0 min 2 min 189 W/m 29,0 km/h (5 Bft) 97,87 %
22.05.2021 16:06 11,5 C 11,1 C 8,9 C 93 % 1005,8 hPa 0,0 l/m 0 min 2 min 186 W/m 16,1 km/h (3 Bft) 97,87 %
22.05.2021 16:08 11,5 C 11,1 C 8,9 C 92 % 1005,7 hPa 0,0 l/m 0 min 2 min 158 W/m 25,7 km/h (4 Bft) 97,83 %
22.05.2021 16:10 11,5 C 11,1 C 8,9 C 92 % 1005,7 hPa 0,0 l/m 0 min 2 min 124 W/m 22,5 km/h (4 Bft) 95,74 %
22.05.2021 16:12 11,6 C 11,1 C 8,9 C 92 % 1005,7 hPa 0,0 l/m 0 min 2 min 118 W/m 16,1 km/h (3 Bft) 97,87 %
22.05.2021 16:14 11,5 C 11,1 C 8,9 C 92 % 1005,7 hPa 0,0 l/m 0 min 2 min 152 W/m 25,7 km/h (4 Bft) 97,87 %
22.05.2021 16:16 11,5 C 10,6 C 8,4 C 92 % 1005,8 hPa 0,0 l/m 0 min 2 min 143 W/m 54,7 km/h (7 Bft) 97,87 %
22.05.2021 16:18 11,5 C 10,6 C 8,9 C 92 % 1005,7 hPa 0,0 l/m 0 min 2 min 104 W/m 35,4 km/h (5 Bft) 97,87 %
22.05.2021 16:20 11,5 C 10,6 C 8,9 C 92 % 1005,8 hPa 0,0 l/m 0 min 2 min 96 W/m 32,2 km/h (5 Bft) 93,48 %
22.05.2021 16:22 11,5 C 10,6 C 8,9 C 92 % 1005,9 hPa 0,0 l/m 0 min 2 min 89 W/m 16,1 km/h (3 Bft) 93,62 %
22.05.2021 16:24 11,5 C 10,6 C 8,4 C 92 % 1006,0 hPa 0,2 l/m 0 min 2 min 86 W/m 22,5 km/h (4 Bft) 97,87 %
22.05.2021 16:26 11,5 C 10,6 C 8,4 C 92 % 1005,9 hPa 0,0 l/m 0 min 2 min 108 W/m 22,5 km/h (4 Bft) 93,62 %
22.05.2021 16:28 11,4 C 10,6 C 8,4 C 92 % 1006,0 hPa 0,0 l/m 0 min 2 min 112 W/m 29,0 km/h (5 Bft) 95,74 %
22.05.2021 16:30 11,4 C 10,6 C 8,4 C 92 % 1006,1 hPa 0,0 l/m 0 min 2 min 129 W/m 19,3 km/h (3 Bft) 97,87 %
22.05.2021 16:32 11,4 C 10,6 C 8,4 C 92 % 1006,1 hPa 0,0 l/m 0 min 2 min 144 W/m 19,3 km/h (3 Bft) 95,65 %
22.05.2021 16:34 11,4 C 10,6 C 8,4 C 92 % 1006,2 hPa 0,2 l/m 0 min 2 min 154 W/m 16,1 km/h (3 Bft) 93,62 %
22.05.2021 16:36 11,3 C 10,6 C 8,4 C 92 % 1006,2 hPa 0,0 l/m 0 min 2 min 152 W/m 22,5 km/h (4 Bft) 97,87 %
22.05.2021 16:38 11,2 C 10,6 C 8,4 C 92 % 1006,2 hPa 0,0 l/m 0 min 2 min 169 W/m 22,5 km/h (4 Bft) 97,87 %
22.05.2021 16:40 11,1 C 10,0 C 8,4 C 92 % 1006,3 hPa 0,0 l/m 0 min 2 min 206 W/m 19,3 km/h (3 Bft) 97,87 %
22.05.2021 16:42 11,0 C 10,0 C 8,4 C 92 % 1006,3 hPa 0,0 l/m 0 min 2 min 240 W/m 25,7 km/h (4 Bft) 97,83 %
22.05.2021 16:44 11,0 C 10,6 C 8,4 C 92 % 1006,4 hPa 0,0 l/m 0 min 2 min 263 W/m 19,3 km/h (3 Bft) 100,00 %
22.05.2021 16:46 11,0 C 10,6 C 8,4 C 92 % 1006,4 hPa 0,0 l/m 0 min 2 min 314 W/m 16,1 km/h (3 Bft) 97,87 %
22.05.2021 16:48 11,0 C 11,1 C 8,4 C 93 % 1006,4 hPa 0,0 l/m 0 min 2 min 316 W/m 22,5 km/h (4 Bft) 97,87 %
22.05.2021 16:50 11,0 C 11,1 C 8,4 C 93 % 1006,4 hPa 0,0 l/m 0 min 2 min 286 W/m 16,1 km/h (3 Bft) 97,87 %
22.05.2021 16:52 11,0 C 11,1 C 8,4 C 93 % 1006,5 hPa 0,0 l/m 0 min 2 min 293 W/m 16,1 km/h (3 Bft) 97,87 %
22.05.2021 16:54 11,0 C 11,1 C 8,4 C 92 % 1006,4 hPa 0,0 l/m 0 min 2 min 299 W/m 19,3 km/h (3 Bft) 97,83 %
22.05.2021 16:56 11,1 C 11,1 C 8,9 C 92 % 1006,5 hPa 0,0 l/m 0 min 2 min 301 W/m 12,9 km/h (3 Bft) 95,74 %
22.05.2021 16:58 11,2 C 11,7 C 8,9 C 92 % 1006,6 hPa 0,0 l/m 2 min 0 min 315 W/m 12,9 km/h (3 Bft) 98,08 %
22.05.2021 17:00 11,3 C 11,7 C 8,9 C 93 % 1006,5 hPa 0,0 l/m 0 min 2 min 300 W/m 19,3 km/h (3 Bft) 95,74 %
22.05.2021 17:02 11,3 C 11,1 C 8,9 C 93 % 1006,6 hPa 0,0 l/m 0 min 0 min 262 W/m 16,1 km/h (3 Bft) 97,87 %
22.05.2021 17:04 11,3 C 11,1 C 8,9 C 92 % 1006,6 hPa 0,0 l/m 0 min 0 min 249 W/m 22,5 km/h (4 Bft) 91,30 %
22.05.2021 17:06 11,3 C 11,7 C 8,9 C 92 % 1006,6 hPa 0,0 l/m 0 min 0 min 274 W/m 16,1 km/h (3 Bft) 97,87 %
22.05.2021 17:08 11,3 C 11,7 C 8,9 C 92 % 1006,7 hPa 0,0 l/m 0 min 0 min 272 W/m 16,1 km/h (3 Bft) 53,33 %
22.05.2021 17:10 11,4 C 11,7 C 8,9 C 92 % 1006,7 hPa 0,0 l/m 0 min 0 min 242 W/m 19,3 km/h (3 Bft) 93,62 %
22.05.2021 17:12 11,4 C 11,7 C 8,9 C 92 % 1006,7 hPa 0,0 l/m 0 min 0 min 223 W/m 16,1 km/h (3 Bft) 93,62 %
22.05.2021 17:14 11,4 C 11,7 C 8,9 C 92 % 1006,7 hPa 0,0 l/m 0 min 0 min 220 W/m 16,1 km/h (3 Bft) 95,74 %
22.05.2021 17:16 11,5 C 11,7 C 8,9 C 91 % 1006,8 hPa 0,0 l/m 0 min 0 min 250 W/m 16,1 km/h (3 Bft) 89,13 %
22.05.2021 17:18 11,5 C 11,7 C 8,9 C 91 % 1006,8 hPa 0,0 l/m 0 min 0 min 272 W/m 16,1 km/h (3 Bft) 95,74 %
22.05.2021 17:20 11,5 C 11,7 C 8,9 C 92 % 1006,8 hPa 0,0 l/m 0 min 0 min 260 W/m 19,3 km/h (3 Bft) 95,74 %
22.05.2021 17:22 11,6 C 11,7 C 8,9 C 92 % 1006,9 hPa 0,0 l/m 0 min 0 min 256 W/m 6,4 km/h (2 Bft) 95,74 %
22.05.2021 17:24 11,7 C 11,7 C 8,9 C 91 % 1006,9 hPa 0,0 l/m 0 min 0 min 255 W/m 16,1 km/h (3 Bft) 95,74 %
22.05.2021 17:26 11,8 C 12,2 C 9,5 C 92 % 1006,9 hPa 0,0 l/m 0 min 0 min 223 W/m 12,9 km/h (3 Bft) 95,65 %
22.05.2021 17:28 11,8 C 12,2 C 9,5 C 91 % 1006,9 hPa 0,0 l/m 0 min 0 min 235 W/m 12,9 km/h (3 Bft) 93,62 %
22.05.2021 17:30 11,8 C 12,2 C 9,5 C 91 % 1007,0 hPa 0,0 l/m 0 min 0 min 235 W/m 19,3 km/h (3 Bft) 93,62 %
22.05.2021 17:32 11,9 C 12,2 C 9,5 C 91 % 1007,0 hPa 0,0 l/m 0 min 0 min 231 W/m 6,4 km/h (2 Bft) 91,49 %
22.05.2021 17:34 11,9 C 12,2 C 9,5 C 92 % 1007,0 hPa 0,0 l/m 0 min 0 min 215 W/m 12,9 km/h (3 Bft) 93,62 %
22.05.2021 17:36 11,9 C 11,7 C 9,5 C 92 % 1007,1 hPa 0,0 l/m 0 min 0 min 183 W/m 19,3 km/h (3 Bft) 95,74 %
22.05.2021 17:38 11,9 C 11,7 C 9,5 C 91 % 1007,1 hPa 0,0 l/m 0 min 0 min 124 W/m 22,5 km/h (4 Bft) 97,83 %
22.05.2021 17:40 11,9 C 11,7 C 8,9 C 91 % 1007,1 hPa 0,0 l/m 0 min 0 min 138 W/m 16,1 km/h (3 Bft) 93,62 %
22.05.2021 17:42 11,9 C 12,8 C 9,5 C 91 % 1007,0 hPa 0,0 l/m 0 min 0 min 235 W/m 25,7 km/h (4 Bft) 95,74 %
22.05.2021 17:44 12,0 C 13,9 C 9,5 C 91 % 1007,0 hPa 0,0 l/m 2 min 0 min 517 W/m 19,3 km/h (3 Bft) 95,74 %
22.05.2021 17:46 12,0 C 13,3 C 9,5 C 90 % 1007,1 hPa 0,0 l/m 2 min 0 min 411 W/m 19,3 km/h (3 Bft) 93,62 %
22.05.2021 17:48 12,1 C 12,8 C 9,5 C 90 % 1007,0 hPa 0,0 l/m 0 min 0 min 252 W/m 19,3 km/h (3 Bft) 95,74 %
22.05.2021 17:50 12,1 C 12,8 C 9,5 C 90 % 1007,1 hPa 0,0 l/m 0 min 0 min 209 W/m 12,9 km/h (3 Bft) 97,87 %
22.05.2021 17:52 12,2 C 12,8 C 9,5 C 89 % 1007,1 hPa 0,0 l/m 0 min 0 min 245 W/m 19,3 km/h (3 Bft) 97,83 %
22.05.2021 17:54 12,2 C 12,8 C 9,5 C 89 % 1007,1 hPa 0,0 l/m 0 min 0 min 235 W/m 12,9 km/h (3 Bft) 97,87 %
22.05.2021 17:56 12,3 C 12,8 C 9,5 C 89 % 1007,1 hPa 0,0 l/m 0 min 0 min 235 W/m 16,1 km/h (3 Bft) 97,87 %
22.05.2021 17:58 12,2 C 12,2 C 9,5 C 88 % 1007,1 hPa 0,0 l/m 2 min 0 min 255 W/m 16,1 km/h (3 Bft) 97,87 %
22.05.2021 18:00 12,2 C 12,2 C 9,5 C 88 % 1007,1 hPa 0,0 l/m 0 min 0 min 224 W/m 19,3 km/h (3 Bft) 100,00 %
22.05.2021 18:02 12,2 C 12,2 C 9,5 C 88 % 1007,2 hPa 0,0 l/m 0 min 0 min 206 W/m 22,5 km/h (4 Bft) 97,83 %
22.05.2021 18:04 12,1 C 12,2 C 9,5 C 88 % 1007,2 hPa 0,0 l/m 0 min 0 min 175 W/m 16,1 km/h (3 Bft) 97,87 %
22.05.2021 18:08 12,1 C 11,7 C 9,5 C 88 % 1007,1 hPa 0,0 l/m 0 min 0 min 134 W/m 22,5 km/h (4 Bft) 98,89 %
22.05.2021 18:10 12,1 C 11,7 C 9,5 C 88 % 1007,3 hPa 0,0 l/m 0 min 0 min 111 W/m 12,9 km/h (3 Bft) 100,00 %
22.05.2021 18:12 12,1 C 11,7 C 9,5 C 89 % 1007,3 hPa 0,0 l/m 0 min 0 min 123 W/m 9,7 km/h (2 Bft) 100,00 %
22.05.2021 18:14 12,1 C 11,7 C 8,9 C 89 % 1007,2 hPa 0,0 l/m 0 min 0 min 136 W/m 29,0 km/h (5 Bft) 100,00 %
22.05.2021 18:16 12,0 C 11,7 C 8,9 C 89 % 1007,3 hPa 0,0 l/m 0 min 0 min 143 W/m 22,5 km/h (4 Bft) 97,87 %
22.05.2021 18:18 11,9 C 11,7 C 8,9 C 89 % 1007,3 hPa 0,0 l/m 0 min 0 min 143 W/m 19,3 km/h (3 Bft) 100,00 %
22.05.2021 18:20 11,9 C 11,7 C 8,9 C 89 % 1007,3 hPa 0,0 l/m 0 min 0 min 122 W/m 22,5 km/h (4 Bft) 100,00 %
22.05.2021 18:22 11,8 C 11,7 C 8,9 C 89 % 1007,4 hPa 0,0 l/m 0 min 0 min 93 W/m 19,3 km/h (3 Bft) 100,00 %
22.05.2021 18:24 11,8 C 11,1 C 8,9 C 89 % 1007,4 hPa 0,0 l/m 0 min 0 min 69 W/m 12,9 km/h (3 Bft) 97,87 %
22.05.2021 18:26 11,8 C 11,1 C 8,9 C 89 % 1007,4 hPa 0,0 l/m 0 min 0 min 61 W/m 12,9 km/h (3 Bft) 100,00 %
22.05.2021 18:28 11,7 C 11,1 C 8,9 C 89 % 1007,5 hPa 0,0 l/m 0 min 0 min 77 W/m 22,5 km/h (4 Bft) 100,00 %
22.05.2021 18:30 11,6 C 11,1 C 8,9 C 90 % 1007,5 hPa 0,0 l/m 0 min 0 min 108 W/m 16,1 km/h (3 Bft) 100,00 %
22.05.2021 18:32 11,6 C 11,1 C 8,9 C 90 % 1007,5 hPa 0,0 l/m 0 min 0 min 108 W/m 16,1 km/h (3 Bft) 97,87 %
22.05.2021 18:34 11,6 C 11,1 C 8,9 C 90 % 1007,5 hPa 0,0 l/m 0 min 0 min 119 W/m 12,9 km/h (3 Bft) 97,87 %
22.05.2021 18:36 11,6 C 11,7 C 8,9 C 90 % 1007,6 hPa 0,0 l/m 0 min 0 min 137 W/m 6,4 km/h (2 Bft) 100,00 %
22.05.2021 18:38 11,6 C 11,7 C 8,9 C 90 % 1007,6 hPa 0,0 l/m 0 min 0 min 158 W/m 9,7 km/h (2 Bft) 93,48 %
22.05.2021 18:40 11,7 C 11,7 C 8,9 C 90 % 1007,5 hPa 0,0 l/m 0 min 0 min 186 W/m 22,5 km/h (4 Bft) 97,87 %
22.05.2021 18:42 11,7 C 11,7 C 8,9 C 91 % 1007,6 hPa 0,0 l/m 0 min 0 min 175 W/m 22,5 km/h (4 Bft) 97,87 %
22.05.2021 18:44 11,7 C 11,7 C 8,9 C 90 % 1007,6 hPa 0,0 l/m 0 min 0 min 157 W/m 9,7 km/h (2 Bft) 97,87 %
22.05.2021 18:46 11,8 C 11,7 C 8,9 C 91 % 1007,6 hPa 0,0 l/m 0 min 0 min 162 W/m 12,9 km/h (3 Bft) 95,74 %
22.05.2021 18:48 11,8 C 11,7 C 8,9 C 91 % 1007,6 hPa 0,0 l/m 0 min 0 min 153 W/m 19,3 km/h (3 Bft) 95,74 %
22.05.2021 18:50 11,8 C 11,7 C 8,9 C 90 % 1007,5 hPa 0,0 l/m 0 min 0 min 125 W/m 9,7 km/h (2 Bft) 97,83 %
22.05.2021 18:52 11,8 C 11,7 C 8,9 C 91 % 1007,6 hPa 0,0 l/m 0 min 0 min 97 W/m 9,7 km/h (2 Bft) 97,87 %
22.05.2021 18:54 11,8 C 11,7 C 8,9 C 91 % 1007,6 hPa 0,0 l/m 0 min 0 min 79 W/m 19,3 km/h (3 Bft) 97,87 %
22.05.2021 18:56 11,8 C 11,7 C 8,9 C 90 % 1007,6 hPa 0,0 l/m 0 min 0 min 94 W/m 12,9 km/h (3 Bft) 97,87 %
22.05.2021 18:58 11,8 C 11,7 C 8,9 C 90 % 1007,6 hPa 0,0 l/m 0 min 0 min 125 W/m 19,3 km/h (3 Bft) 97,87 %
22.05.2021 19:00 11,8 C 11,7 C 8,9 C 90 % 1007,6 hPa 0,0 l/m 0 min 0 min 136 W/m 16,1 km/h (3 Bft) 97,87 %
22.05.2021 19:02 11,8 C 12,2 C 8,9 C 90 % 1007,6 hPa 0,0 l/m 0 min 0 min 157 W/m 12,9 km/h (3 Bft) 97,83 %
22.05.2021 19:04 11,9 C 12,8 C 9,5 C 90 % 1007,6 hPa 0,0 l/m 2 min 0 min 244 W/m 6,4 km/h (2 Bft) 97,87 %
22.05.2021 19:06 11,9 C 12,8 C 9,5 C 90 % 1007,7 hPa 0,0 l/m 2 min 0 min 249 W/m 12,9 km/h (3 Bft) 97,87 %
22.05.2021 19:08 12,0 C 12,2 C 9,5 C 90 % 1007,7 hPa 0,0 l/m 2 min 0 min 178 W/m 19,3 km/h (3 Bft) 97,87 %
22.05.2021 19:10 12,0 C 12,2 C 9,5 C 90 % 1007,6 hPa 0,0 l/m 0 min 0 min 142 W/m 22,5 km/h (4 Bft) 95,74 %
22.05.2021 19:12 12,0 C 12,2 C 9,5 C 90 % 1007,7 hPa 0,0 l/m 0 min 0 min 136 W/m 6,4 km/h (2 Bft) 97,87 %
22.05.2021 19:14 12,0 C 12,2 C 9,5 C 90 % 1007,7 hPa 0,0 l/m 2 min 0 min 219 W/m 12,9 km/h (3 Bft) 97,83 %
22.05.2021 19:16 12,1 C 12,2 C 9,5 C 90 % 1007,7 hPa 0,0 l/m 2 min 0 min 210 W/m 16,1 km/h (3 Bft) 97,87 %
22.05.2021 19:18 12,1 C 12,8 C 9,5 C 90 % 1007,8 hPa 0,0 l/m 2 min 0 min 202 W/m 9,7 km/h (2 Bft) 97,87 %
22.05.2021 19:20 12,1 C 12,2 C 9,5 C 89 % 1007,8 hPa 0,0 l/m 2 min 0 min 197 W/m 16,1 km/h (3 Bft) 97,87 %
22.05.2021 19:22 12,2 C 12,2 C 10,0 C 89 % 1007,7 hPa 0,0 l/m 2 min 0 min 188 W/m 22,5 km/h (4 Bft) 97,87 %
22.05.2021 19:24 12,1 C 12,2 C 10,0 C 89 % 1007,8 hPa 0,0 l/m 2 min 0 min 150 W/m 22,5 km/h (4 Bft) 97,87 %
22.05.2021 19:26 12,1 C 12,2 C 10,0 C 89 % 1007,8 hPa 0,0 l/m 0 min 0 min 104 W/m 16,1 km/h (3 Bft) 97,83 %
22.05.2021 19:28 12,1 C 11,7 C 10,0 C 89 % 1007,8 hPa 0,0 l/m 0 min 0 min 78 W/m 12,9 km/h (3 Bft) 100,00 %
22.05.2021 19:30 12,1 C 11,7 C 10,0 C 88 % 1007,8 hPa 0,0 l/m 0 min 0 min 66 W/m 12,9 km/h (3 Bft) 100,00 %
22.05.2021 19:32 12,1 C 11,7 C 9,5 C 89 % 1007,8 hPa 0,0 l/m 0 min 0 min 63 W/m 19,3 km/h (3 Bft) 97,87 %
22.05.2021 19:34 12,0 C 11,7 C 9,5 C 88 % 1007,8 hPa 0,0 l/m 0 min 0 min 76 W/m 22,5 km/h (4 Bft) 97,87 %
22.05.2021 19:36 12,0 C 11,7 C 9,5 C 88 % 1007,8 hPa 0,0 l/m 0 min 0 min 76 W/m 29,0 km/h (5 Bft) 97,87 %
22.05.2021 19:38 11,9 C 11,7 C 9,5 C 88 % 1007,8 hPa 0,0 l/m 0 min 0 min 76 W/m 19,3 km/h (3 Bft) 97,83 %
22.05.2021 19:40 11,9 C 11,7 C 9,5 C 88 % 1007,8 hPa 0,0 l/m 0 min 0 min 89 W/m 22,5 km/h (4 Bft) 95,74 %
22.05.2021 19:42 11,9 C 11,7 C 9,5 C 89 % 1007,8 hPa 0,0 l/m 0 min 0 min 115 W/m 12,9 km/h (3 Bft) 97,87 %
22.05.2021 19:44 11,9 C 11,7 C 9,5 C 89 % 1007,9 hPa 0,0 l/m 2 min 0 min 121 W/m 19,3 km/h (3 Bft) 55,32 %
22.05.2021 19:46 11,9 C 11,7 C 9,5 C 89 % 1007,8 hPa 0,0 l/m 0 min 0 min 94 W/m 12,9 km/h (3 Bft) 100,00 %
22.05.2021 19:48 11,9 C 11,7 C 9,5 C 89 % 1007,9 hPa 0,0 l/m 0 min 0 min 93 W/m 16,1 km/h (3 Bft) 97,83 %
22.05.2021 19:50 11,9 C 11,7 C 9,5 C 89 % 1007,9 hPa 0,0 l/m 0 min 0 min 83 W/m 16,1 km/h (3 Bft) 97,87 %
22.05.2021 19:52 11,9 C 11,7 C 9,5 C 89 % 1007,8 hPa 0,0 l/m 0 min 0 min 74 W/m 12,9 km/h (3 Bft) 100,00 %
22.05.2021 19:54 11,9 C 11,7 C 9,5 C 89 % 1007,8 hPa 0,0 l/m 0 min 0 min 75 W/m 6,4 km/h (2 Bft) 100,00 %
22.05.2021 19:56 11,9 C 11,7 C 9,5 C 89 % 1007,8 hPa 0,0 l/m 0 min 0 min 78 W/m 9,7 km/h (2 Bft) 97,87 %
22.05.2021 19:58 11,9 C 11,7 C 9,5 C 89 % 1007,8 hPa 0,0 l/m 0 min 0 min 76 W/m 6,4 km/h (2 Bft) 97,87 %
22.05.2021 20:00 11,9 C 11,7 C 9,5 C 89 % 1007,8 hPa 0,0 l/m 0 min 0 min 67 W/m 25,7 km/h (4 Bft) 97,83 %
22.05.2021 20:02 11,9 C 11,7 C 9,5 C 89 % 1007,8 hPa 0,0 l/m 0 min 0 min 62 W/m 12,9 km/h (3 Bft) 97,87 %
22.05.2021 20:04 11,8 C 11,1 C 9,5 C 89 % 1007,9 hPa 0,0 l/m 0 min 0 min 60 W/m 22,5 km/h (4 Bft) 93,62 %
22.05.2021 20:06 11,8 C 11,1 C 9,5 C 89 % 1007,8 hPa 0,0 l/m 0 min 0 min 56 W/m 16,1 km/h (3 Bft) 97,87 %
22.05.2021 20:08 11,8 C 11,1 C 9,5 C 89 % 1007,8 hPa 0,0 l/m 0 min 0 min 53 W/m 9,7 km/h (2 Bft) 93,62 %
22.05.2021 20:10 11,8 C 11,1 C 9,5 C 89 % 1007,8 hPa 0,0 l/m 0 min 0 min 47 W/m 12,9 km/h (3 Bft) 97,87 %
22.05.2021 20:12 11,7 C 11,1 C 9,5 C 89 % 1007,8 hPa 0,0 l/m 0 min 0 min 43 W/m 12,9 km/h (3 Bft) 95,65 %
22.05.2021 20:14 11,7 C 11,1 C 9,5 C 89 % 1007,8 hPa 0,0 l/m 0 min 0 min 42 W/m 16,1 km/h (3 Bft) 95,74 %
22.05.2021 20:16 11,6 C 11,1 C 9,5 C 89 % 1007,8 hPa 0,0 l/m 0 min 0 min 39 W/m 6,4 km/h (2 Bft) 97,87 %
22.05.2021 20:18 11,6 C 11,1 C 9,5 C 90 % 1007,8 hPa 0,0 l/m 0 min 0 min 35 W/m 9,7 km/h (2 Bft) 97,87 %
22.05.2021 20:20 11,6 C 11,1 C 9,5 C 90 % 1007,8 hPa 0,0 l/m 0 min 0 min 31 W/m 16,1 km/h (3 Bft) 97,87 %
22.05.2021 20:22 11,6 C 11,1 C 8,9 C 90 % 1007,8 hPa 0,0 l/m 0 min 2 min 27 W/m 16,1 km/h (3 Bft) 95,74 %
22.05.2021 20:24 11,6 C 11,1 C 8,9 C 90 % 1007,8 hPa 0,0 l/m 0 min 2 min 25 W/m 6,4 km/h (2 Bft) 95,65 %
22.05.2021 20:26 11,6 C 11,1 C 8,9 C 90 % 1007,8 hPa 0,0 l/m 0 min 2 min 23 W/m 16,1 km/h (3 Bft) 97,87 %
22.05.2021 20:28 11,5 C 10,6 C 8,9 C 90 % 1007,8 hPa 0,0 l/m 0 min 2 min 23 W/m 16,1 km/h (3 Bft) 97,87 %
22.05.2021 20:30 11,5 C 10,6 C 8,9 C 90 % 1007,9 hPa 0,0 l/m 0 min 2 min 23 W/m 19,3 km/h (3 Bft) 97,87 %
22.05.2021 20:32 11,5 C 10,6 C 8,9 C 90 % 1007,9 hPa 0,0 l/m 0 min 2 min 23 W/m 12,9 km/h (3 Bft) 97,87 %
22.05.2021 20:34 11,4 C 10,6 C 8,9 C 91 % 1007,9 hPa 0,0 l/m 0 min 2 min 21 W/m 12,9 km/h (3 Bft) 97,87 %
22.05.2021 20:36 11,4 C 10,6 C 8,9 C 91 % 1008,0 hPa 0,0 l/m 0 min 2 min 19 W/m 6,4 km/h (2 Bft) 97,83 %
22.05.2021 20:38 11,4 C 10,6 C 8,4 C 91 % 1008,0 hPa 0,0 l/m 0 min 2 min 18 W/m 16,1 km/h (3 Bft) 95,74 %
22.05.2021 20:40 11,3 C 10,6 C 8,4 C 91 % 1008,0 hPa 0,0 l/m 0 min 2 min 17 W/m 16,1 km/h (3 Bft) 95,74 %
22.05.2021 20:42 11,3 C 10,6 C 8,4 C 91 % 1008,1 hPa 0,0 l/m 0 min 2 min 16 W/m 12,9 km/h (3 Bft) 97,87 %
22.05.2021 20:44 11,2 C 10,6 C 8,4 C 91 % 1008,0 hPa 0,0 l/m 0 min 2 min 15 W/m 12,9 km/h (3 Bft) 97,87 %
22.05.2021 20:46 11,2 C 10,6 C 8,4 C 92 % 1008,1 hPa 0,0 l/m 0 min 0 min 12 W/m 12,9 km/h (3 Bft) 97,87 %
22.05.2021 20:48 11,1 C 10,6 C 8,4 C 92 % 1008,1 hPa 0,0 l/m 0 min 2 min 11 W/m 9,7 km/h (2 Bft) 100,00 %
22.05.2021 20:50 11,1 C 10,6 C 8,4 C 92 % 1008,1 hPa 0,0 l/m 0 min 0 min 11 W/m 12,9 km/h (3 Bft) 97,87 %
22.05.2021 20:52 11,1 C 10,6 C 8,4 C 92 % 1008,1 hPa 0,0 l/m 0 min 0 min 11 W/m 16,1 km/h (3 Bft) 97,87 %
22.05.2021 20:54 11,1 C 10,6 C 8,4 C 92 % 1008,1 hPa 0,0 l/m 0 min 0 min 12 W/m 9,7 km/h (2 Bft) 100,00 %
22.05.2021 20:56 11,1 C 10,6 C 8,9 C 92 % 1008,1 hPa 0,0 l/m 0 min 0 min 12 W/m 6,4 km/h (2 Bft) 100,00 %
22.05.2021 20:58 11,1 C 10,6 C 8,9 C 92 % 1008,2 hPa 0,0 l/m 0 min 0 min 10 W/m 19,3 km/h (3 Bft) 97,83 %
22.05.2021 21:00 11,1 C 10,6 C 8,9 C 92 % 1008,2 hPa 0,0 l/m 0 min 0 min 7 W/m 9,7 km/h (2 Bft) 100,00 %
22.05.2021 21:02 11,1 C 10,6 C 8,9 C 92 % 1008,2 hPa 0,0 l/m 0 min 0 min 6 W/m 6,4 km/h (2 Bft) 100,00 %
22.05.2021 21:04 11,1 C 10,6 C 8,9 C 92 % 1008,2 hPa 0,0 l/m 0 min 0 min 5 W/m 6,4 km/h (2 Bft) 100,00 %
22.05.2021 21:06 11,1 C 10,6 C 8,9 C 93 % 1008,2 hPa 0,0 l/m 0 min 0 min 5 W/m 19,3 km/h (3 Bft) 97,87 %
22.05.2021 21:08 11,0 C 10,6 C 8,9 C 93 % 1008,1 hPa 0,0 l/m 0 min 0 min 5 W/m 12,9 km/h (3 Bft) 100,00 %
22.05.2021 21:10 11,0 C 10,6 C 8,9 C 93 % 1008,2 hPa 0,0 l/m 0 min 0 min 3 W/m 16,1 km/h (3 Bft) 100,00 %
22.05.2021 21:12 11,0 C 10,6 C 8,9 C 93 % 1008,2 hPa 0,0 l/m 0 min 0 min 0 W/m 6,4 km/h (2 Bft) 97,87 %
22.05.2021 21:14 11,0 C 10,6 C 8,9 C 93 % 1008,2 hPa 0,0 l/m 0 min 0 min 0 W/m 16,1 km/h (3 Bft) 97,87 %
22.05.2021 21:16 11,0 C 10,6 C 8,9 C 93 % 1008,3 hPa 0,0 l/m 0 min 0 min 0 W/m 12,9 km/h (3 Bft) 97,87 %
22.05.2021 21:18 11,0 C 10,6 C 8,9 C 93 % 1008,2 hPa 0,0 l/m 0 min 0 min 0 W/m 29,0 km/h (5 Bft) 97,87 %
22.05.2021 21:20 11,0 C 10,0 C 8,4 C 93 % 1008,3 hPa 0,0 l/m 0 min 0 min 0 W/m 16,1 km/h (3 Bft) 95,74 %
22.05.2021 21:22 10,9 C 10,0 C 8,4 C 93 % 1008,3 hPa 0,0 l/m 0 min 0 min 0 W/m 12,9 km/h (3 Bft) 97,83 %
22.05.2021 21:24 10,9 C 10,0 C 8,4 C 93 % 1008,3 hPa 0,0 l/m 0 min 0 min 0 W/m 19,3 km/h (3 Bft) 97,73 %
22.05.2021 21:26 10,9 C 10,0 C 8,4 C 93 % 1008,3 hPa 0,0 l/m 0 min 0 min 0 W/m 16,1 km/h (3 Bft) 97,87 %
22.05.2021 21:28 10,9 C 10,0 C 8,4 C 93 % 1008,3 hPa 0,0 l/m 0 min 0 min 0 W/m 19,3 km/h (3 Bft) 95,92 %
22.05.2021 21:30 10,9 C 10,0 C 8,4 C 93 % 1008,4 hPa 0,0 l/m 0 min 2 min 0 W/m 16,1 km/h (3 Bft) 95,74 %
22.05.2021 21:32 10,9 C 10,0 C 8,4 C 93 % 1008,4 hPa 0,0 l/m 0 min 2 min 0 W/m 19,3 km/h (3 Bft) 93,62 %
22.05.2021 21:34 10,9 C 10,0 C 8,4 C 93 % 1008,4 hPa 0,0 l/m 0 min 0 min 0 W/m 6,4 km/h (2 Bft) 95,74 %
22.05.2021 21:36 10,8 C 10,0 C 8,4 C 93 % 1008,4 hPa 0,0 l/m 0 min 0 min 0 W/m 12,9 km/h (3 Bft) 95,74 %
22.05.2021 21:38 10,9 C 10,0 C 8,4 C 93 % 1008,4 hPa 0,0 l/m 0 min 0 min 0 W/m 9,7 km/h (2 Bft) 93,48 %
22.05.2021 21:40 10,9 C 10,0 C 8,9 C 94 % 1008,4 hPa 0,0 l/m 0 min 0 min 0 W/m 6,4 km/h (2 Bft) 95,74 %
22.05.2021 21:42 10,9 C 10,0 C 8,9 C 94 % 1008,5 hPa 0,0 l/m 0 min 0 min 0 W/m 3,2 km/h (1 Bft) 95,74 %
22.05.2021 21:44 10,9 C 10,0 C 8,9 C 94 % 1008,5 hPa 0,0 l/m 0 min 0 min 0 W/m 6,4 km/h (2 Bft) 95,74 %
22.05.2021 21:46 10,9 C 10,0 C 8,9 C 94 % 1008,5 hPa 0,0 l/m 0 min 0 min 0 W/m 6,4 km/h (2 Bft) 95,74 %
22.05.2021 21:48 10,8 C 10,0 C 8,9 C 94 % 1008,5 hPa 0,0 l/m 0 min 0 min 0 W/m 6,4 km/h (2 Bft) 91,49 %
22.05.2021 21:50 10,8 C 10,0 C 8,9 C 94 % 1008,5 hPa 0,0 l/m 0 min 0 min 0 W/m 6,4 km/h (2 Bft) 95,65 %
22.05.2021 21:52 10,9 C 10,0 C 8,9 C 94 % 1008,6 hPa 0,0 l/m 0 min 2 min 0 W/m 6,4 km/h (2 Bft) 95,74 %
22.05.2021 21:54 10,8 C 10,0 C 8,4 C 94 % 1008,8 hPa 0,0 l/m 0 min 2 min 0 W/m 3,2 km/h (1 Bft) 95,74 %
22.05.2021 21:56 10,9 C 10,0 C 8,4 C 94 % 1008,8 hPa 0,6 l/m 0 min 2 min 0 W/m 3,2 km/h (1 Bft) 91,67 %
22.05.2021 21:58 10,9 C 10,0 C 8,4 C 94 % 1008,7 hPa 0,4 l/m 0 min 2 min 0 W/m 6,4 km/h (2 Bft) 95,65 %
22.05.2021 22:00 10,8 C 9,4 C 8,4 C 94 % 1008,7 hPa 0,2 l/m 0 min 2 min 0 W/m 6,4 km/h (2 Bft) 95,74 %
22.05.2021 22:02 10,8 C 9,4 C 8,4 C 94 % 1008,8 hPa 0,0 l/m 0 min 2 min 0 W/m 6,4 km/h (2 Bft) 93,62 %
22.05.2021 22:04 10,8 C 9,4 C 7,8 C 94 % 1008,8 hPa 0,2 l/m 0 min 2 min 0 W/m 3,2 km/h (1 Bft) 95,74 %
22.05.2021 22:06 10,8 C 9,4 C 7,8 C 95 % 1008,8 hPa 0,0 l/m 0 min 0 min 0 W/m 3,2 km/h (1 Bft) 95,24 %
22.05.2021 22:08 10,8 C 9,4 C 7,8 C 95 % 1008,8 hPa 0,0 l/m 0 min 0 min 0 W/m 3,2 km/h (1 Bft) 93,75 %
22.05.2021 22:10 10,7 C 9,4 C 7,8 C 95 % 1008,8 hPa 0,0 l/m 0 min 2 min 0 W/m 12,9 km/h (3 Bft) 95,74 %
22.05.2021 22:12 10,6 C 9,4 C 7,8 C 95 % 1008,8 hPa 0,0 l/m 0 min 2 min 0 W/m 6,4 km/h (2 Bft) 93,62 %
22.05.2021 22:14 10,6 C 9,4 C 7,8 C 95 % 1008,8 hPa 0,0 l/m 0 min 2 min 0 W/m 6,4 km/h (2 Bft) 95,65 %
22.05.2021 22:16 10,5 C 9,4 C 7,8 C 95 % 1008,8 hPa 0,0 l/m 0 min 2 min 0 W/m 6,4 km/h (2 Bft) 97,87 %
22.05.2021 22:18 10,5 C 9,4 C 7,8 C 95 % 1008,9 hPa 0,2 l/m 0 min 2 min 0 W/m 6,4 km/h (2 Bft) 95,74 %
22.05.2021 22:20 10,4 C 9,4 C 7,8 C 95 % 1008,9 hPa 0,0 l/m 0 min 2 min 0 W/m 12,9 km/h (3 Bft) 97,87 %
22.05.2021 22:22 10,4 C 8,9 C 7,8 C 95 % 1008,9 hPa 0,0 l/m 0 min 2 min 0 W/m 6,4 km/h (2 Bft) 95,74 %
22.05.2021 22:24 10,3 C 8,9 C 7,8 C 95 % 1008,8 hPa 0,0 l/m 0 min 2 min 0 W/m 3,2 km/h (1 Bft) 100,00 %
22.05.2021 22:26 10,3 C 8,9 C 7,8 C 95 % 1008,9 hPa 0,2 l/m 0 min 2 min 0 W/m 3,2 km/h (1 Bft) 97,83 %
22.05.2021 22:28 10,3 C 8,9 C 7,8 C 95 % 1008,8 hPa 0,0 l/m 0 min 2 min 0 W/m 3,2 km/h (1 Bft) 97,87 %
22.05.2021 22:30 10,3 C 8,9 C 7,8 C 95 % 1008,8 hPa 0,0 l/m 0 min 2 min 0 W/m 0,0 km/h (0 Bft) 97,87 %
22.05.2021 22:32 10,3 C 8,9 C 7,8 C 95 % 1008,9 hPa 0,0 l/m 0 min 0 min 0 W/m 9,7 km/h (2 Bft) 97,87 %
22.05.2021 22:34 10,3 C 8,9 C 7,8 C 95 % 1008,9 hPa 0,0 l/m 0 min 0 min 0 W/m 6,4 km/h (2 Bft) 97,87 %
22.05.2021 22:36 10,2 C 8,9 C 7,8 C 95 % 1009,0 hPa 0,0 l/m 0 min 0 min 0 W/m 6,4 km/h (2 Bft) 95,74 %
22.05.2021 22:38 10,2 C 8,9 C 7,8 C 95 % 1008,9 hPa 0,0 l/m 0 min 0 min 0 W/m 3,2 km/h (1 Bft) 97,83 %
22.05.2021 22:40 10,2 C 8,9 C 7,8 C 95 % 1008,9 hPa 0,0 l/m 0 min 0 min 0 W/m 6,4 km/h (2 Bft) 97,87 %
22.05.2021 22:42 10,1 C 8,9 C 7,8 C 95 % 1009,0 hPa 0,0 l/m 0 min 0 min 0 W/m 6,4 km/h (2 Bft) 97,87 %
22.05.2021 22:44 10,1 C 9,4 C 7,8 C 96 % 1009,0 hPa 0,0 l/m 0 min 0 min 0 W/m 12,9 km/h (3 Bft) 97,87 %
22.05.2021 22:46 10,1 C 9,4 C 7,8 C 96 % 1009,1 hPa 0,0 l/m 0 min 0 min 0 W/m 9,7 km/h (2 Bft) 97,87 %
22.05.2021 22:48 10,1 C 9,4 C 7,8 C 96 % 1009,1 hPa 0,0 l/m 0 min 0 min 0 W/m 6,4 km/h (2 Bft) 95,74 %
22.05.2021 22:50 10,1 C 9,4 C 7,8 C 96 % 1009,1 hPa 0,0 l/m 0 min 0 min 0 W/m 6,4 km/h (2 Bft) 97,83 %
22.05.2021 22:52 10,1 C 9,4 C 7,8 C 96 % 1009,0 hPa 0,0 l/m 0 min 0 min 0 W/m 6,4 km/h (2 Bft) 97,87 %
22.05.2021 22:54 10,1 C 9,4 C 7,8 C 96 % 1009,0 hPa 0,0 l/m 0 min 0 min 0 W/m 3,2 km/h (1 Bft) 100,00 %
22.05.2021 22:56 10,1 C 9,4 C 7,8 C 96 % 1009,0 hPa 0,0 l/m 0 min 0 min 0 W/m 6,4 km/h (2 Bft) 97,87 %
22.05.2021 22:58 10,1 C 9,4 C 7,8 C 96 % 1008,9 hPa 0,0 l/m 0 min 0 min 0 W/m 9,7 km/h (2 Bft) 95,74 %
22.05.2021 23:00 10,1 C 9,4 C 7,8 C 96 % 1009,0 hPa 0,0 l/m 0 min 0 min 0 W/m 9,7 km/h (2 Bft) 97,87 %
22.05.2021 23:02 10,1 C 9,4 C 7,8 C 96 % 1008,9 hPa 0,0 l/m 0 min 0 min 0 W/m 3,2 km/h (1 Bft) 97,83 %
22.05.2021 23:04 10,1 C 9,4 C 7,8 C 96 % 1008,9 hPa 0,0 l/m 0 min 0 min 0 W/m 6,4 km/h (2 Bft) 97,87 %
22.05.2021 23:06 10,1 C 9,4 C 7,8 C 96 % 1008,9 hPa 0,0 l/m 0 min 0 min 0 W/m 6,4 km/h (2 Bft) 97,87 %
22.05.2021 23:08 10,1 C 9,4 C 7,8 C 96 % 1008,9 hPa 0,0 l/m 0 min 0 min 0 W/m 3,2 km/h (1 Bft) 95,74 %
22.05.2021 23:10 10,0 C 8,9 C 7,8 C 96 % 1008,9 hPa 0,0 l/m 0 min 0 min 0 W/m 3,2 km/h (1 Bft) 97,87 %
22.05.2021 23:12 10,0 C 8,9 C 7,8 C 96 % 1008,9 hPa 0,0 l/m 0 min 0 min 0 W/m 3,2 km/h (1 Bft) 95,74 %
22.05.2021 23:14 10,0 C 8,9 C 7,8 C 96 % 1008,9 hPa 0,0 l/m 0 min 0 min 0 W/m 3,2 km/h (1 Bft) 95,65 %
22.05.2021 23:16 10,0 C 8,9 C 7,8 C 96 % 1008,9 hPa 0,0 l/m 0 min 0 min 0 W/m 6,4 km/h (2 Bft) 93,62 %
22.05.2021 23:18 10,0 C 9,4 C 7,8 C 96 % 1008,9 hPa 0,0 l/m 0 min 0 min 0 W/m 6,4 km/h (2 Bft) 95,74 %
22.05.2021 23:20 10,0 C 9,4 C 7,8 C 96 % 1008,9 hPa 0,0 l/m 0 min 0 min 0 W/m 3,2 km/h (1 Bft) 97,87 %
22.05.2021 23:22 10,0 C 9,4 C 7,8 C 96 % 1008,9 hPa 0,0 l/m 0 min 0 min 0 W/m 3,2 km/h (1 Bft) 97,87 %
22.05.2021 23:24 10,0 C 9,4 C 7,8 C 96 % 1008,9 hPa 0,0 l/m 0 min 0 min 0 W/m 3,2 km/h (1 Bft) 97,87 %
22.05.2021 23:26 10,0 C 9,4 C 7,8 C 96 % 1009,0 hPa 0,0 l/m 0 min 0 min 0 W/m 3,2 km/h (1 Bft) 95,65 %
22.05.2021 23:28 10,0 C 9,4 C 7,8 C 96 % 1009,0 hPa 0,0 l/m 0 min 0 min 0 W/m 3,2 km/h (1 Bft) 95,74 %
22.05.2021 23:30 10,0 C 9,4 C 7,8 C 96 % 1008,9 hPa 0,0 l/m 0 min 0 min 0 W/m 3,2 km/h (1 Bft) 97,87 %
22.05.2021 23:32 10,0 C 9,4 C 7,8 C 96 % 1008,9 hPa 0,0 l/m 0 min 0 min 0 W/m 3,2 km/h (1 Bft) 97,87 %
22.05.2021 23:34 10,0 C 9,4 C 7,8 C 96 % 1008,9 hPa 0,0 l/m 0 min 0 min 0 W/m 6,4 km/h (2 Bft) 95,74 %
22.05.2021 23:36 10,1 C 9,4 C 7,8 C 96 % 1009,0 hPa 0,0 l/m 0 min 0 min 0 W/m 6,4 km/h (2 Bft) 95,74 %
22.05.2021 23:38 10,1 C 9,4 C 7,8 C 96 % 1009,0 hPa 0,0 l/m 0 min 0 min 0 W/m 6,4 km/h (2 Bft) 95,65 %
22.05.2021 23:40 10,1 C 9,4 C 7,8 C 96 % 1009,0 hPa 0,0 l/m 0 min 0 min 0 W/m 6,4 km/h (2 Bft) 95,74 %
22.05.2021 23:42 10,1 C 9,4 C 7,8 C 96 % 1009,0 hPa 0,0 l/m 0 min 0 min 0 W/m 12,9 km/h (3 Bft) 97,87 %
22.05.2021 23:44 10,1 C 9,4 C 7,8 C 96 % 1009,1 hPa 0,0 l/m 0 min 0 min 0 W/m 16,1 km/h (3 Bft) 97,87 %
22.05.2021 23:46 10,1 C 9,4 C 7,8 C 96 % 1009,0 hPa 0,0 l/m 0 min 0 min 0 W/m 12,9 km/h (3 Bft) 97,87 %
22.05.2021 23:48 10,1 C 9,4 C 7,8 C 96 % 1009,1 hPa 0,0 l/m 0 min 0 min 0 W/m 12,9 km/h (3 Bft) 100,00 %
22.05.2021 23:50 10,0 C 9,4 C 7,8 C 96 % 1009,1 hPa 0,0 l/m 0 min 0 min 0 W/m 16,1 km/h (3 Bft) 100,00 %
22.05.2021 23:52 10,0 C 9,4 C 7,8 C 96 % 1009,0 hPa 0,0 l/m 0 min 0 min 0 W/m 16,1 km/h (3 Bft) 97,87 %
22.05.2021 23:54 10,0 C 9,4 C 7,8 C 96 % 1009,1 hPa 0,0 l/m 0 min 0 min 0 W/m 12,9 km/h (3 Bft) 95,74 %
22.05.2021 23:56 10,0 C 9,4 C 7,3 C 96 % 1009,1 hPa 0,0 l/m 0 min 0 min 0 W/m 16,1 km/h (3 Bft) 97,87 %
22.05.2021 23:58 9,9 C 8,9 C 7,3 C 96 % 1009,1 hPa 0,0 l/m 0 min 0 min 0 W/m 12,9 km/h (3 Bft) 100,00 %
_ Min-Zeit 04:04 03:30 08:16 02:52 07:12 - - - - 22:30 00:48
Minimum _ 9,7 C 8,9 C 6,1 C 75 % 1001,0 hPa - - - - 0,0 km/h (0 Bft) 50,00 %
_ Max-Zeit 14:26 17:44 13:46 22:44 22:46 21:56 06:10 12:08 17:44 13:06 00:40
Maximum _ 12,4 C 13,9 C 10,6 C 96 % 1009,1 hPa 0,6 l/m 2 min 4 min 517 W/m 64,4 km/h
S-SO (8 Bft)
100,00 %
Durchschnitt _ 10,9 C 10,4 C 8,3 C 86 % 1004,2 hPa #3,6 l/m #1:02 h #8:46 h 147 W/m 24,7 km/h (4 Bft) 97,18 %
© 2021 W. Hausmann